Time,TemperatureF,DewpointF,PressureIn,WindDirection,WindDirectionDegrees,WindSpeedMPH,WindSpeedGustMPH,Humidity,HourlyPrecipIn,Conditions,Clouds,dailyrainin,SolarRadiationWatts/m^2,SoftwareType,DateUTC
2013-03-17 00:00:00,67.6,35.9,29.77,SSE,147,7.0,0.0,31,0.00,,,0.00,0,WeatherHawk,2013-03-17 07:00:00,
2013-03-17 00:04:00,67.5,35.8,29.77,SE,146,8.0,0.0,31,0.00,,,0.00,1,WeatherHawk,2013-03-17 07:04:00,
2013-03-17 00:06:00,67.3,35.6,29.77,SE,145,9.0,0.0,31,0.00,,,0.00,0,WeatherHawk,2013-03-17 07:06:00,
2013-03-17 00:09:00,67.3,35.6,29.76,SE,144,8.0,0.0,31,0.00,,,0.00,0,WeatherHawk,2013-03-17 07:09:00,
2013-03-17 00:10:00,67.1,35.4,29.76,SE,143,8.0,0.0,31,0.00,,,0.00,0,WeatherHawk,2013-03-17 07:10:00,
2013-03-17 00:14:00,67.1,36.3,29.76,SE,142,8.0,-999.0,32,0.00,,,0.00,0,WeatherHawk,2013-03-17 07:14:00,
2013-03-17 00:15:00,66.9,36.1,29.76,SE,143,7.0,0.0,32,0.00,,,0.00,0,WeatherHawk,2013-03-17 07:15:00,
2013-03-17 00:16:00,66.9,36.1,29.76,SE,145,7.0,0.0,32,0.00,,,0.00,0,WeatherHawk,2013-03-17 07:16:00,
2013-03-17 00:19:00,66.9,36.1,29.76,SE,143,8.0,-999.0,32,0.00,,,0.00,0,WeatherHawk,2013-03-17 07:19:00,
2013-03-17 00:22:00,66.9,36.1,29.76,SE,143,8.0,0.0,32,0.00,,,0.00,0,WeatherHawk,2013-03-17 07:22:00,
2013-03-17 00:24:00,66.9,36.1,29.76,SE,146,7.0,0.0,32,0.00,,,0.00,0,WeatherHawk,2013-03-17 07:24:00,
2013-03-17 00:25:00,66.9,36.1,29.76,SSE,149,8.0,0.0,32,0.00,,,0.00,0,WeatherHawk,2013-03-17 07:25:00,
2013-03-17 00:27:00,66.9,36.9,29.76,SE,140,8.0,0.0,33,0.00,,,0.00,0,WeatherHawk,2013-03-17 07:27:00,
2013-03-17 00:31:00,66.9,36.9,29.76,SE,140,8.0,0.0,33,0.00,,,0.00,0,WeatherHawk,2013-03-17 07:31:00,
2013-03-17 00:32:00,66.9,36.9,29.76,SE,144,7.0,0.0,33,0.00,,,0.00,0,WeatherHawk,2013-03-17 07:32:00,
2013-03-17 00:34:00,66.9,36.9,29.76,SE,146,7.0,0.0,33,0.00,,,0.00,0,WeatherHawk,2013-03-17 07:34:00,
2013-03-17 00:37:00,66.7,36.7,29.76,SE,145,7.0,0.0,33,0.00,,,0.00,0,WeatherHawk,2013-03-17 07:37:00,
2013-03-17 00:38:00,66.7,36.7,29.76,SSE,150,8.0,0.0,33,0.00,,,0.00,0,WeatherHawk,2013-03-17 07:38:00,
2013-03-17 00:43:00,66.7,37.5,29.76,SE,146,6.0,0.0,34,0.00,,,0.00,0,WeatherHawk,2013-03-17 07:43:00,
2013-03-17 00:46:00,66.7,37.5,29.76,SSE,148,7.0,0.0,34,0.00,,,0.00,0,WeatherHawk,2013-03-17 07:46:00,
2013-03-17 00:48:00,66.9,38.4,29.76,SSE,148,7.0,-999.0,35,0.00,,,0.00,0,WeatherHawk,2013-03-17 07:48:00,
2013-03-17 00:50:00,66.9,38.4,29.76,SSE,147,6.0,-999.0,35,0.00,,,0.00,0,WeatherHawk,2013-03-17 07:50:00,
2013-03-17 00:54:00,66.9,39.1,29.76,SE,138,7.0,9.0,36,0.00,,,0.00,0,WeatherHawk,2013-03-17 07:54:00,
2013-03-17 00:55:00,66.9,39.1,29.76,SE,145,6.0,9.0,36,0.00,,,0.00,0,WeatherHawk,2013-03-17 07:55:00,
2013-03-17 00:58:00,67.1,39.2,29.76,SE,141,6.0,9.0,36,0.00,,,0.00,0,WeatherHawk,2013-03-17 07:58:00,
2013-03-17 01:00:00,67.1,40.0,29.76,SSE,148,8.0,-999.0,37,0.00,,,0.00,0,WeatherHawk,2013-03-17 08:00:00,
2013-03-17 01:04:00,67.1,40.6,29.76,SSE,152,5.0,9.0,38,0.00,,,0.00,0,WeatherHawk,2013-03-17 08:04:00,
2013-03-17 01:05:00,66.9,40.5,29.76,South,172,7.0,9.0,38,0.00,,,0.00,0,WeatherHawk,2013-03-17 08:05:00,
2013-03-17 01:06:00,66.9,41.1,29.76,SSE,152,6.0,9.0,39,0.00,,,0.00,0,WeatherHawk,2013-03-17 08:06:00,
2013-03-17 01:09:00,66.9,41.1,29.76,SSE,148,4.0,9.0,39,0.00,,,0.00,0,WeatherHawk,2013-03-17 08:09:00,
2013-03-17 01:12:00,66.7,41.0,29.76,SE,145,6.0,7.0,39,0.00,,,0.00,0,WeatherHawk,2013-03-17 08:12:00,
2013-03-17 01:14:00,66.9,41.1,29.76,SSE,154,6.0,7.0,39,0.00,,,0.00,1,WeatherHawk,2013-03-17 08:14:00,
2013-03-17 01:17:00,66.9,41.8,29.76,SSE,154,6.0,7.0,40,0.00,,,0.00,0,WeatherHawk,2013-03-17 08:17:00,
2013-03-17 01:19:00,66.7,42.3,29.76,SSE,163,5.0,7.0,41,0.00,,,0.00,0,WeatherHawk,2013-03-17 08:19:00,
2013-03-17 01:20:00,66.7,42.3,29.76,SSE,157,4.0,9.0,41,0.00,,,0.00,1,WeatherHawk,2013-03-17 08:20:00,
2013-03-17 01:23:00,66.6,42.7,29.76,SSE,148,4.0,9.0,42,0.00,,,0.00,0,WeatherHawk,2013-03-17 08:23:00,
2013-03-17 01:24:00,66.4,42.6,29.76,SSE,149,6.0,9.0,42,0.00,,,0.00,1,WeatherHawk,2013-03-17 08:24:00,
2013-03-17 01:25:00,66.4,42.6,29.76,SSE,149,5.0,9.0,42,0.00,,,0.00,0,WeatherHawk,2013-03-17 08:25:00,
2013-03-17 01:26:00,66.4,42.6,29.76,SSE,147,7.0,9.0,42,0.00,,,0.00,0,WeatherHawk,2013-03-17 08:26:00,
2013-03-17 01:29:00,66.2,43.0,29.76,SE,141,8.0,9.0,43,0.00,,,0.00,0,WeatherHawk,2013-03-17 08:29:00,
2013-03-17 01:33:00,66.0,43.5,29.76,SE,145,7.0,9.0,44,0.00,,,0.00,0,WeatherHawk,2013-03-17 08:33:00,
2013-03-17 01:34:00,66.0,43.5,29.76,SSE,148,6.0,9.0,44,0.00,,,0.00,0,WeatherHawk,2013-03-17 08:34:00,
2013-03-17 01:36:00,65.8,43.9,29.76,SE,142,7.0,9.0,45,0.00,,,0.00,0,WeatherHawk,2013-03-17 08:36:00,
2013-03-17 01:37:00,65.8,43.9,29.76,SSE,148,7.0,9.0,45,0.00,,,0.00,0,WeatherHawk,2013-03-17 08:37:00,
2013-03-17 01:39:00,65.8,43.9,29.76,SSE,147,6.0,9.0,45,0.00,,,0.00,0,WeatherHawk,2013-03-17 08:39:00,
2013-03-17 01:42:00,65.7,44.3,29.76,SSE,147,5.0,9.0,46,0.00,,,0.00,0,WeatherHawk,2013-03-17 08:42:00,
2013-03-17 01:44:00,65.7,44.3,29.76,SSE,150,6.0,9.0,46,0.00,,,0.00,0,WeatherHawk,2013-03-17 08:44:00,
2013-03-17 01:45:00,65.7,44.3,29.76,SSE,152,6.0,9.0,46,0.00,,,0.00,0,WeatherHawk,2013-03-17 08:45:00,
2013-03-17 01:48:00,65.5,44.7,29.76,SSE,153,6.0,9.0,47,0.00,,,0.00,0,WeatherHawk,2013-03-17 08:48:00,
2013-03-17 01:49:00,65.5,44.7,29.76,SSE,153,6.0,9.0,47,0.00,,,0.00,0,WeatherHawk,2013-03-17 08:49:00,
2013-03-17 01:50:00,65.5,44.7,29.76,SSE,155,7.0,0.0,47,0.00,,,0.00,0,WeatherHawk,2013-03-17 08:50:00,
2013-03-17 01:54:00,65.7,44.9,29.76,South,171,5.0,-999.0,47,0.00,,,0.00,0,WeatherHawk,2013-03-17 08:54:00,
2013-03-17 01:55:00,65.7,44.9,29.76,SSE,161,7.0,7.0,47,0.00,,,0.00,0,WeatherHawk,2013-03-17 08:55:00,
2013-03-17 01:58:00,65.7,44.9,29.76,SSE,150,7.0,7.0,47,0.00,,,0.00,0,WeatherHawk,2013-03-17 08:58:00,
2013-03-17 01:59:00,65.7,45.4,29.76,SSE,160,6.0,7.0,48,0.00,,,0.00,1,WeatherHawk,2013-03-17 08:59:00,
2013-03-17 02:04:00,65.3,45.1,29.76,SSE,166,6.0,8.0,48,0.00,,,0.00,0,WeatherHawk,2013-03-17 09:04:00,
2013-03-17 02:05:00,65.3,45.1,29.76,SSE,159,4.0,8.0,48,0.00,,,0.00,1,WeatherHawk,2013-03-17 09:05:00,
2013-03-17 02:06:00,65.3,45.6,29.76,South,173,6.0,8.0,49,0.00,,,0.00,0,WeatherHawk,2013-03-17 09:06:00,
2013-03-17 02:09:00,65.3,45.6,29.76,SSE,166,6.0,8.0,49,0.00,,,0.00,1,WeatherHawk,2013-03-17 09:09:00,
2013-03-17 02:12:00,65.1,45.5,29.76,SE,144,6.0,8.0,49,0.00,,,0.00,0,WeatherHawk,2013-03-17 09:12:00,
2013-03-17 02:14:00,64.9,45.8,29.76,SSE,168,7.0,8.0,50,0.00,,,0.00,0,WeatherHawk,2013-03-17 09:14:00,
2013-03-17 02:15:00,64.9,45.8,29.76,SSE,161,7.0,8.0,50,0.00,,,0.00,0,WeatherHawk,2013-03-17 09:15:00,
2013-03-17 02:19:00,64.8,45.7,29.76,SSE,157,7.0,8.0,50,0.00,,,0.00,0,WeatherHawk,2013-03-17 09:19:00,
2013-03-17 02:20:00,64.9,45.8,29.76,SSE,156,6.0,9.0,50,0.00,,,0.00,0,WeatherHawk,2013-03-17 09:20:00,
2013-03-17 02:24:00,64.9,45.8,29.76,SE,145,6.0,-999.0,50,0.00,,,0.00,0,WeatherHawk,2013-03-17 09:24:00,
2013-03-17 02:26:00,64.9,45.8,29.76,SSE,153,6.0,9.0,50,0.00,,,0.00,0,WeatherHawk,2013-03-17 09:26:00,
2013-03-17 02:29:00,64.9,45.8,29.76,SE,140,7.0,9.0,50,0.00,,,0.00,0,WeatherHawk,2013-03-17 09:29:00,
2013-03-17 02:33:00,64.8,45.7,29.76,SE,144,8.0,8.0,50,0.00,,,0.00,0,WeatherHawk,2013-03-17 09:33:00,
2013-03-17 02:34:00,64.8,45.7,29.76,SSE,148,7.0,8.0,50,0.00,,,0.00,0,WeatherHawk,2013-03-17 09:34:00,
2013-03-17 02:39:00,64.8,45.7,29.76,SE,140,6.0,8.0,50,0.00,,,0.00,0,WeatherHawk,2013-03-17 09:39:00,
2013-03-17 02:41:00,64.6,45.5,29.76,SE,140,5.0,8.0,50,0.00,,,0.00,0,WeatherHawk,2013-03-17 09:41:00,
2013-03-17 02:43:00,64.4,45.9,29.76,SE,142,6.0,8.0,51,0.00,,,0.00,0,WeatherHawk,2013-03-17 09:43:00,
2013-03-17 02:44:00,64.6,46.0,29.76,SE,146,7.0,8.0,51,0.00,,,0.00,0,WeatherHawk,2013-03-17 09:44:00,
2013-03-17 02:49:00,64.6,46.0,29.76,SE,141,7.0,8.0,51,0.00,,,0.00,0,WeatherHawk,2013-03-17 09:49:00,
2013-03-17 02:52:00,64.4,45.9,29.76,SSE,147,5.0,9.0,51,0.00,,,0.00,0,WeatherHawk,2013-03-17 09:52:00,
2013-03-17 02:54:00,64.2,46.2,29.76,SE,144,4.0,9.0,52,0.00,,,0.00,0,WeatherHawk,2013-03-17 09:54:00,
2013-03-17 02:57:00,63.9,45.9,29.76,SE,135,3.0,9.0,52,0.00,,,0.00,0,WeatherHawk,2013-03-17 09:57:00,
2013-03-17 02:58:00,63.9,45.9,29.76,SE,142,4.0,9.0,52,0.00,,,0.00,0,WeatherHawk,2013-03-17 09:58:00,
2013-03-17 02:59:00,63.9,45.9,29.76,SSE,165,3.0,-999.0,52,0.00,,,0.00,0,WeatherHawk,2013-03-17 09:59:00,
2013-03-17 03:04:00,63.5,46.1,29.76,SE,134,3.0,6.0,53,0.00,,,0.00,0,WeatherHawk,2013-03-17 10:04:00,
2013-03-17 03:05:00,63.5,46.6,29.76,SE,135,3.0,6.0,54,0.00,,,0.00,0,WeatherHawk,2013-03-17 10:05:00,
2013-03-17 03:07:00,63.5,46.6,29.76,South,185,3.0,6.0,54,0.00,,,0.00,0,WeatherHawk,2013-03-17 10:07:00,
2013-03-17 03:09:00,63.3,46.4,29.76,SE,130,3.0,6.0,54,0.00,,,0.00,0,WeatherHawk,2013-03-17 10:09:00,
2013-03-17 03:13:00,63.3,46.9,29.76,SE,139,5.0,5.0,55,0.00,,,0.00,0,WeatherHawk,2013-03-17 10:13:00,
2013-03-17 03:14:00,63.3,46.9,29.76,SE,139,4.0,4.0,55,0.00,,,0.00,0,WeatherHawk,2013-03-17 10:14:00,
2013-03-17 03:17:00,63.5,47.0,29.76,SSE,151,6.0,6.0,55,0.00,,,0.00,0,WeatherHawk,2013-03-17 10:17:00,
2013-03-17 03:19:00,63.5,47.0,29.76,SSE,153,5.0,5.0,55,0.00,,,0.00,0,WeatherHawk,2013-03-17 10:19:00,
2013-03-17 03:20:00,63.5,47.0,29.76,SSE,158,4.0,7.0,55,0.00,,,0.00,0,WeatherHawk,2013-03-17 10:20:00,
2013-03-17 03:21:00,63.3,46.9,29.76,SSE,151,4.0,7.0,55,0.00,,,0.00,0,WeatherHawk,2013-03-17 10:21:00,
2013-03-17 03:24:00,63.3,47.3,29.76,South,176,3.0,7.0,56,0.00,,,0.00,0,WeatherHawk,2013-03-17 10:24:00,
2013-03-17 03:25:00,63.1,47.2,29.76,SSW,202,3.0,7.0,56,0.00,,,0.00,0,WeatherHawk,2013-03-17 10:25:00,
2013-03-17 03:29:00,63.0,47.0,29.76,SSE,166,2.0,7.0,56,0.00,,,0.00,0,WeatherHawk,2013-03-17 10:29:00,
2013-03-17 03:32:00,63.0,47.0,29.76,South,191,4.0,5.0,56,0.00,,,0.00,0,WeatherHawk,2013-03-17 10:32:00,
2013-03-17 03:33:00,63.0,47.0,29.76,South,181,4.0,5.0,56,0.00,,,0.00,0,WeatherHawk,2013-03-17 10:33:00,
2013-03-17 03:34:00,63.0,47.0,29.76,South,173,5.0,5.0,56,0.00,,,0.00,0,WeatherHawk,2013-03-17 10:34:00,
2013-03-17 03:36:00,63.0,47.0,29.76,SSE,161,6.0,6.0,56,0.00,,,0.00,0,WeatherHawk,2013-03-17 10:36:00,
2013-03-17 03:38:00,62.8,46.8,29.76,SSE,167,5.0,5.0,56,0.00,,,0.00,0,WeatherHawk,2013-03-17 10:38:00,
2013-03-17 03:39:00,62.8,46.8,29.76,SSE,168,5.0,5.0,56,0.00,,,0.00,0,WeatherHawk,2013-03-17 10:39:00,
2013-03-17 03:41:00,62.4,46.5,29.76,SSE,165,9.0,9.0,56,0.00,,,0.00,0,WeatherHawk,2013-03-17 10:41:00,
2013-03-17 03:44:00,62.4,47.0,29.76,SSE,160,7.0,-999.0,57,0.00,,,0.00,0,WeatherHawk,2013-03-17 10:44:00,
2013-03-17 03:46:00,62.2,46.8,29.76,SSE,167,9.0,9.0,57,0.00,,,0.00,0,WeatherHawk,2013-03-17 10:46:00,
2013-03-17 03:49:00,62.1,46.6,29.76,SSE,168,9.0,-999.0,57,0.00,,,0.00,1,WeatherHawk,2013-03-17 10:49:00,
2013-03-17 03:50:00,62.1,46.6,29.76,South,170,9.0,9.0,57,0.00,,,0.00,0,WeatherHawk,2013-03-17 10:50:00,
2013-03-17 03:54:00,61.9,46.9,29.75,South,175,9.0,9.0,58,0.00,,,0.00,0,WeatherHawk,2013-03-17 10:54:00,
2013-03-17 03:55:00,61.7,46.8,29.75,SSE,163,9.0,9.0,58,0.00,,,0.00,0,WeatherHawk,2013-03-17 10:55:00,
2013-03-17 03:59:00,61.5,46.6,29.75,SSE,160,8.0,9.0,58,0.00,,,0.00,0,WeatherHawk,2013-03-17 10:59:00,
2013-03-17 04:00:00,61.3,46.9,29.75,SSE,165,8.0,10.0,59,0.00,,,0.00,0,WeatherHawk,2013-03-17 11:00:00,
2013-03-17 04:01:00,61.3,46.9,29.75,SSE,162,11.0,11.0,59,0.00,,,0.00,0,WeatherHawk,2013-03-17 11:01:00,
2013-03-17 04:04:00,61.5,47.1,29.75,SSE,156,9.0,10.0,59,0.00,,,0.00,1,WeatherHawk,2013-03-17 11:04:00,
2013-03-17 04:07:00,61.5,47.1,29.75,SSE,154,9.0,10.0,59,0.00,,,0.00,1,WeatherHawk,2013-03-17 11:07:00,
2013-03-17 04:09:00,61.5,47.1,29.75,SSE,158,8.0,10.0,59,0.00,,,0.00,0,WeatherHawk,2013-03-17 11:09:00,
2013-03-17 04:12:00,61.5,47.1,29.76,SSE,158,8.0,11.0,59,0.00,,,0.00,0,WeatherHawk,2013-03-17 11:12:00,
2013-03-17 04:13:00,61.5,47.1,29.76,SSE,160,7.0,11.0,59,0.00,,,0.00,0,WeatherHawk,2013-03-17 11:13:00,
2013-03-17 04:14:00,61.7,47.2,29.76,SSE,164,8.0,11.0,59,0.00,,,0.00,0,WeatherHawk,2013-03-17 11:14:00,
2013-03-17 04:19:00,61.3,46.9,29.76,SSE,155,7.0,11.0,59,0.00,,,0.00,0,WeatherHawk,2013-03-17 11:19:00,
2013-03-17 04:20:00,61.3,46.9,29.76,SSE,158,7.0,0.0,59,0.00,,,0.00,0,WeatherHawk,2013-03-17 11:20:00,
2013-03-17 04:21:00,61.2,46.7,29.76,SSE,164,8.0,0.0,59,0.00,,,0.00,0,WeatherHawk,2013-03-17 11:21:00,
2013-03-17 04:22:00,61.2,46.7,29.76,SSE,161,8.0,0.0,59,0.00,,,0.00,0,WeatherHawk,2013-03-17 11:22:00,
2013-03-17 04:24:00,61.2,47.2,29.75,SSE,158,9.0,-999.0,60,0.00,,,0.00,0,WeatherHawk,2013-03-17 11:24:00,
2013-03-17 04:26:00,61.2,47.2,29.75,SSE,166,10.0,0.0,60,0.00,,,0.00,1,WeatherHawk,2013-03-17 11:26:00,
2013-03-17 04:28:00,61.0,47.0,29.75,SSE,155,9.0,0.0,60,0.00,,,0.00,0,WeatherHawk,2013-03-17 11:28:00,
2013-03-17 04:29:00,61.0,47.0,29.75,SSE,159,9.0,0.0,60,0.00,,,0.00,0,WeatherHawk,2013-03-17 11:29:00,
2013-03-17 04:34:00,60.8,46.8,29.75,SSE,159,9.0,11.0,60,0.00,,,0.00,0,WeatherHawk,2013-03-17 11:34:00,
2013-03-17 04:36:00,60.8,46.8,29.75,SSE,158,9.0,11.0,60,0.00,,,0.00,0,WeatherHawk,2013-03-17 11:36:00,
2013-03-17 04:39:00,60.8,46.8,29.75,SSE,161,6.0,11.0,60,0.00,,,0.00,0,WeatherHawk,2013-03-17 11:39:00,
2013-03-17 04:42:00,61.0,46.5,29.75,SSE,159,9.0,10.0,59,0.00,,,0.00,0,WeatherHawk,2013-03-17 11:42:00,
2013-03-17 04:44:00,61.0,46.5,29.75,SSE,155,6.0,10.0,59,0.00,,,0.00,0,WeatherHawk,2013-03-17 11:44:00,
2013-03-17 04:47:00,61.0,46.5,29.75,SE,142,7.0,10.0,59,0.00,,,0.00,0,WeatherHawk,2013-03-17 11:47:00,
2013-03-17 04:49:00,61.0,46.5,29.75,SSE,155,6.0,10.0,59,0.00,,,0.00,0,WeatherHawk,2013-03-17 11:49:00,
2013-03-17 04:50:00,61.0,46.5,29.75,SE,138,6.0,0.0,59,0.00,,,0.00,0,WeatherHawk,2013-03-17 11:50:00,
2013-03-17 04:53:00,60.8,46.4,29.75,SE,137,7.0,9.0,59,0.00,,,0.00,0,WeatherHawk,2013-03-17 11:53:00,
2013-03-17 04:55:00,60.8,46.4,29.75,SE,133,8.0,9.0,59,0.00,,,0.00,0,WeatherHawk,2013-03-17 11:55:00,
2013-03-17 04:57:00,61.0,46.1,29.75,SE,135,9.0,9.0,58,0.00,,,0.00,0,WeatherHawk,2013-03-17 11:57:00,
2013-03-17 04:59:00,61.0,46.1,29.75,SE,144,9.0,9.0,58,0.00,,,0.00,0,WeatherHawk,2013-03-17 11:59:00,
2013-03-17 05:00:00,61.0,46.1,29.75,SE,133,8.0,0.0,58,0.00,,,0.00,0,WeatherHawk,2013-03-17 12:00:00,
2013-03-17 05:04:00,60.8,45.9,29.76,SE,145,7.0,0.0,58,0.00,,,0.00,0,WeatherHawk,2013-03-17 12:04:00,
2013-03-17 05:05:00,60.8,45.9,29.76,SE,144,7.0,0.0,58,0.00,,,0.00,0,WeatherHawk,2013-03-17 12:05:00,
2013-03-17 05:06:00,60.8,45.9,29.76,SE,137,8.0,0.0,58,0.00,,,0.00,0,WeatherHawk,2013-03-17 12:06:00,
2013-03-17 05:09:00,60.6,45.8,29.76,SSE,151,6.0,0.0,58,0.00,,,0.00,0,WeatherHawk,2013-03-17 12:09:00,
2013-03-17 05:14:00,60.3,45.4,29.76,SE,140,6.0,0.0,58,0.00,,,0.00,0,WeatherHawk,2013-03-17 12:14:00,
2013-03-17 05:17:00,60.4,45.1,29.76,SE,130,8.0,0.0,57,0.00,,,0.00,0,WeatherHawk,2013-03-17 12:17:00,
2013-03-17 05:20:00,60.6,45.3,29.77,SE,127,7.0,0.0,57,0.00,,,0.00,0,WeatherHawk,2013-03-17 12:20:00,
2013-03-17 05:21:00,60.6,44.8,29.77,SE,132,9.0,0.0,56,0.00,,,0.00,0,WeatherHawk,2013-03-17 12:21:00,
2013-03-17 05:23:00,60.8,45.0,29.77,SE,127,7.0,0.0,56,0.00,,,0.00,0,WeatherHawk,2013-03-17 12:23:00,
2013-03-17 05:24:00,61.0,45.2,29.77,SE,139,7.0,0.0,56,0.00,,,0.00,0,WeatherHawk,2013-03-17 12:24:00,
2013-03-17 05:29:00,61.0,44.7,29.78,East,81,3.0,0.0,55,0.00,,,0.00,0,WeatherHawk,2013-03-17 12:29:00,
2013-03-17 05:32:00,61.0,44.7,29.78,SE,142,2.0,0.0,55,0.00,,,0.00,0,WeatherHawk,2013-03-17 12:32:00,
2013-03-17 05:34:00,60.8,44.5,29.78,NNW,346,2.0,0.0,55,0.00,,,0.00,0,WeatherHawk,2013-03-17 12:34:00,
2013-03-17 05:37:00,60.4,44.7,29.78,ESE,113,1.0,0.0,56,0.00,,,0.00,0,WeatherHawk,2013-03-17 12:37:00,
2013-03-17 05:39:00,60.6,44.4,29.78,SE,139,5.0,0.0,55,0.00,,,0.00,0,WeatherHawk,2013-03-17 12:39:00,
2013-03-17 05:41:00,60.8,44.5,29.78,SSE,151,4.0,5.0,55,0.00,,,0.00,0,WeatherHawk,2013-03-17 12:41:00,
2013-03-17 05:44:00,61.0,44.2,29.78,SE,134,5.0,5.0,54,0.00,,,0.00,1,WeatherHawk,2013-03-17 12:44:00,
2013-03-17 05:45:00,61.0,44.2,29.78,SSE,147,4.0,5.0,54,0.00,,,0.00,0,WeatherHawk,2013-03-17 12:45:00,
2013-03-17 05:49:00,61.2,44.4,29.78,ESE,115,8.0,-999.0,54,0.00,,,0.00,0,WeatherHawk,2013-03-17 12:49:00,
2013-03-17 05:51:00,61.3,44.1,29.78,ESE,113,6.0,0.0,53,0.00,,,0.00,0,WeatherHawk,2013-03-17 12:51:00,
2013-03-17 05:52:00,61.3,44.1,29.78,SE,124,4.0,0.0,53,0.00,,,0.00,0,WeatherHawk,2013-03-17 12:52:00,
2013-03-17 05:54:00,61.2,43.9,29.79,ESE,113,2.0,-999.0,53,0.00,,,0.00,0,WeatherHawk,2013-03-17 12:54:00,
2013-03-17 05:58:00,60.6,43.9,29.79,NE,38,1.0,0.0,54,0.00,,,0.00,0,WeatherHawk,2013-03-17 12:58:00,
2013-03-17 05:59:00,60.4,43.7,29.78,East,98,3.0,0.0,54,0.00,,,0.00,0,WeatherHawk,2013-03-17 12:59:00,
2013-03-17 06:02:00,60.4,43.7,29.79,ESE,116,6.0,8.0,54,0.00,,,0.00,0,WeatherHawk,2013-03-17 13:02:00,
2013-03-17 06:04:00,60.6,43.9,29.79,ESE,107,4.0,8.0,54,0.00,,,0.00,1,WeatherHawk,2013-03-17 13:04:00,
2013-03-17 06:05:00,60.4,43.7,29.79,SE,134,3.0,8.0,54,0.00,,,0.00,0,WeatherHawk,2013-03-17 13:05:00,
2013-03-17 06:08:00,60.1,43.4,29.79,SSE,168,1.0,8.0,54,0.00,,,0.00,0,WeatherHawk,2013-03-17 13:08:00,
2013-03-17 06:09:00,60.1,43.4,29.79,SE,130,1.0,8.0,54,0.00,,,0.00,0,WeatherHawk,2013-03-17 13:09:00,
2013-03-17 06:10:00,59.9,43.2,29.79,SSE,166,0.0,0.0,54,0.00,,,0.00,0,WeatherHawk,2013-03-17 13:10:00,
2013-03-17 06:14:00,59.7,43.0,29.79,SE,136,1.0,0.0,54,0.00,,,0.00,0,WeatherHawk,2013-03-17 13:14:00,
2013-03-17 06:16:00,59.9,43.2,29.79,SE,145,5.0,0.0,54,0.00,,,0.00,0,WeatherHawk,2013-03-17 13:16:00,
2013-03-17 06:19:00,60.1,43.4,29.79,SE,130,5.0,0.0,54,0.00,,,0.00,0,WeatherHawk,2013-03-17 13:19:00,
2013-03-17 06:22:00,60.1,42.9,29.80,ESE,118,6.0,6.0,53,0.00,,,0.00,0,WeatherHawk,2013-03-17 13:22:00,
2013-03-17 06:24:00,60.3,43.1,29.80,East,94,4.0,6.0,53,0.00,,,0.00,0,WeatherHawk,2013-03-17 13:24:00,
2013-03-17 06:29:00,58.5,43.7,29.80,NNE,12,12.0,12.0,58,0.00,,,0.00,1,WeatherHawk,2013-03-17 13:29:00,
2013-03-17 06:32:00,57.6,43.3,29.80,ENE,70,7.0,0.0,59,0.00,,,0.00,0,WeatherHawk,2013-03-17 13:32:00,
2013-03-17 06:34:00,57.6,43.3,29.81,NE,35,8.0,13.0,59,0.00,,,0.00,0,WeatherHawk,2013-03-17 13:34:00,
2013-03-17 06:37:00,56.8,43.1,29.80,East,86,5.0,13.0,60,0.00,,,0.00,1,WeatherHawk,2013-03-17 13:37:00,
2013-03-17 06:39:00,57.0,43.3,29.80,East,101,4.0,13.0,60,0.00,,,0.00,2,WeatherHawk,2013-03-17 13:39:00,
2013-03-17 06:42:00,56.5,43.2,29.80,East,86,3.0,10.0,61,0.00,,,0.00,4,WeatherHawk,2013-03-17 13:42:00,
2013-03-17 06:44:00,56.5,43.6,29.80,East,94,3.0,10.0,62,0.00,,,0.00,4,WeatherHawk,2013-03-17 13:44:00,
2013-03-17 06:49:00,56.7,42.9,29.80,SSE,153,5.0,10.0,60,0.00,,,0.00,9,WeatherHawk,2013-03-17 13:49:00,
2013-03-17 06:51:00,57.6,42.9,29.80,SSE,168,6.0,0.0,58,0.00,,,0.00,11,WeatherHawk,2013-03-17 13:51:00,
2013-03-17 06:56:00,58.3,43.1,29.81,SE,145,5.0,0.0,57,0.00,,,0.00,18,WeatherHawk,2013-03-17 13:56:00,
2013-03-17 06:58:00,58.1,42.5,29.81,SE,132,5.0,0.0,56,0.00,,,0.00,25,WeatherHawk,2013-03-17 13:58:00,
2013-03-17 06:59:00,57.9,42.8,29.81,SE,130,5.0,0.0,57,0.00,,,0.00,24,WeatherHawk,2013-03-17 13:59:00,
2013-03-17 07:01:00,57.7,42.1,29.81,SE,142,5.0,0.0,56,0.00,,,0.00,30,WeatherHawk,2013-03-17 14:01:00,
2013-03-17 07:04:00,57.7,41.7,29.81,SSE,161,7.0,7.0,55,0.00,,,0.00,35,WeatherHawk,2013-03-17 14:04:00,
2013-03-17 07:07:00,58.1,42.0,29.81,SSE,147,6.0,6.0,55,0.00,,,0.00,46,WeatherHawk,2013-03-17 14:07:00,
2013-03-17 07:09:00,58.1,41.5,29.81,SSE,148,5.0,-999.0,54,0.00,,,0.00,51,WeatherHawk,2013-03-17 14:09:00,
2013-03-17 07:11:00,58.1,41.5,29.81,SE,141,5.0,7.0,54,0.00,,,0.00,54,WeatherHawk,2013-03-17 14:11:00,
2013-03-17 07:12:00,58.1,41.5,29.81,SE,126,5.0,7.0,54,0.00,,,0.00,60,WeatherHawk,2013-03-17 14:12:00,
2013-03-17 07:15:00,58.3,41.2,29.81,SE,133,5.0,7.0,53,0.00,,,0.00,69,WeatherHawk,2013-03-17 14:15:00,
2013-03-17 07:19:00,58.8,41.2,29.81,SE,140,5.0,7.0,52,0.00,,,0.00,77,WeatherHawk,2013-03-17 14:19:00,
2013-03-17 07:20:00,59.0,40.9,29.81,SE,138,6.0,6.0,51,0.00,,,0.00,81,WeatherHawk,2013-03-17 14:20:00,
2013-03-17 07:24:00,59.2,41.1,29.81,SSE,149,5.0,6.0,51,0.00,,,0.00,90,WeatherHawk,2013-03-17 14:24:00,
2013-03-17 07:26:00,59.4,41.2,29.81,SE,140,5.0,6.0,51,0.00,,,0.00,102,WeatherHawk,2013-03-17 14:26:00,
2013-03-17 07:30:00,59.5,41.4,29.81,SSE,156,7.0,0.0,51,0.00,,,0.00,114,WeatherHawk,2013-03-17 14:30:00,
2013-03-17 07:31:00,59.5,40.9,29.81,SSE,164,7.0,0.0,50,0.00,,,0.00,117,WeatherHawk,2013-03-17 14:31:00,
2013-03-17 07:35:00,59.7,41.0,29.82,SE,145,6.0,0.0,50,0.00,,,0.00,131,WeatherHawk,2013-03-17 14:35:00,
2013-03-17 07:36:00,59.9,41.2,29.82,SE,141,6.0,0.0,50,0.00,,,0.00,134,WeatherHawk,2013-03-17 14:36:00,
2013-03-17 07:38:00,60.1,41.4,29.82,SSE,147,6.0,0.0,50,0.00,,,0.00,137,WeatherHawk,2013-03-17 14:38:00,
2013-03-17 07:42:00,60.4,41.2,29.82,SE,138,7.0,0.0,49,0.00,,,0.00,153,WeatherHawk,2013-03-17 14:42:00,
2013-03-17 07:44:00,60.6,41.4,29.82,SE,129,6.0,0.0,49,0.00,,,0.00,157,WeatherHawk,2013-03-17 14:44:00,
2013-03-17 07:49:00,61.7,41.8,29.82,SSE,147,3.0,0.0,48,0.00,,,0.00,177,WeatherHawk,2013-03-17 14:49:00,
2013-03-17 07:52:00,62.4,41.4,29.82,SSE,154,5.0,0.0,46,0.00,,,0.00,189,WeatherHawk,2013-03-17 14:52:00,
2013-03-17 07:54:00,62.4,41.4,29.83,SE,144,5.0,0.0,46,0.00,,,0.00,193,WeatherHawk,2013-03-17 14:54:00,
2013-03-17 07:59:00,62.8,41.7,29.83,SE,125,2.0,0.0,46,0.00,,,0.00,212,WeatherHawk,2013-03-17 14:59:00,
2013-03-17 08:00:00,63.3,42.2,29.83,SSW,199,1.0,0.0,46,0.00,,,0.00,221,WeatherHawk,2013-03-17 15:00:00,
2013-03-17 08:04:00,63.7,41.9,29.83,SW,228,3.0,0.0,45,0.00,,,0.00,231,WeatherHawk,2013-03-17 15:04:00,
2013-03-17 08:06:00,63.5,42.3,29.84,SW,217,3.0,0.0,46,0.00,,,0.00,240,WeatherHawk,2013-03-17 15:06:00,
2013-03-17 08:10:00,63.5,41.8,29.84,South,171,1.0,0.0,45,0.00,,,0.00,256,WeatherHawk,2013-03-17 15:10:00,
2013-03-17 08:11:00,63.7,43.1,29.84,NW,316,2.0,0.0,47,0.00,,,0.00,258,WeatherHawk,2013-03-17 15:11:00,
2013-03-17 08:12:00,63.7,43.1,29.84,WNW,292,0.0,0.0,47,0.00,,,0.00,264,WeatherHawk,2013-03-17 15:12:00,
2013-03-17 08:14:00,63.9,42.7,29.84,West,265,1.0,0.0,46,0.00,,,0.00,267,WeatherHawk,2013-03-17 15:14:00,
2013-03-17 08:16:00,64.0,42.3,29.84,SW,224,1.0,0.0,45,0.00,,,0.00,281,WeatherHawk,2013-03-17 15:16:00,
2013-03-17 08:18:00,64.2,43.6,29.85,West,274,2.0,0.0,47,0.00,,,0.00,288,WeatherHawk,2013-03-17 15:18:00,
2013-03-17 08:19:00,64.2,43.6,29.85,West,274,2.0,0.0,47,0.00,,,0.00,288,WeatherHawk,2013-03-17 15:19:00,
2013-03-17 08:23:00,63.7,43.1,29.85,West,277,3.0,0.0,47,0.00,,,0.00,308,WeatherHawk,2013-03-17 15:23:00,
2013-03-17 08:24:00,63.7,43.1,29.85,West,277,3.0,0.0,47,0.00,,,0.00,308,WeatherHawk,2013-03-17 15:24:00,
2013-03-17 08:25:00,63.7,44.2,29.85,WNW,294,3.0,0.0,49,0.00,,,0.00,314,WeatherHawk,2013-03-17 15:25:00,
2013-03-17 08:29:00,63.0,46.1,29.85,NW,307,4.0,0.0,54,0.00,,,0.00,326,WeatherHawk,2013-03-17 15:29:00,
2013-03-17 08:33:00,62.2,46.3,29.85,NW,314,2.0,0.0,56,0.00,,,0.00,346,WeatherHawk,2013-03-17 15:33:00,
2013-03-17 08:34:00,62.2,46.3,29.85,NW,314,2.0,0.0,56,0.00,,,0.00,346,WeatherHawk,2013-03-17 15:34:00,
2013-03-17 08:37:00,62.2,46.8,29.85,NW,319,3.0,0.0,57,0.00,,,0.00,359,WeatherHawk,2013-03-17 15:37:00,
2013-03-17 08:39:00,62.4,47.9,29.85,West,281,4.0,-999.0,59,0.00,,,0.00,365,WeatherHawk,2013-03-17 15:39:00,
2013-03-17 08:40:00,62.4,47.9,29.85,WNW,287,3.0,0.0,59,0.00,,,0.00,371,WeatherHawk,2013-03-17 15:40:00,
2013-03-17 08:42:00,62.4,47.4,29.85,WNW,300,3.0,0.0,58,0.00,,,0.00,379,WeatherHawk,2013-03-17 15:42:00,
2013-03-17 08:45:00,62.6,47.1,29.85,WNW,286,4.0,0.0,57,0.00,,,0.00,389,WeatherHawk,2013-03-17 15:45:00,
2013-03-17 08:48:00,62.6,45.7,29.86,NW,325,2.0,0.0,54,0.00,,,0.00,402,WeatherHawk,2013-03-17 15:48:00,
2013-03-17 08:49:00,62.6,46.2,29.86,NNW,327,3.0,0.0,55,0.00,,,0.00,403,WeatherHawk,2013-03-17 15:49:00,
2013-03-17 08:52:00,63.0,47.0,29.86,West,279,3.0,0.0,56,0.00,,,0.00,416,WeatherHawk,2013-03-17 15:52:00,
2013-03-17 08:54:00,63.0,46.5,29.86,West,273,2.0,-999.0,55,0.00,,,0.00,421,WeatherHawk,2013-03-17 15:54:00,
2013-03-17 08:57:00,63.3,46.9,29.86,WSW,251,2.0,0.0,55,0.00,,,0.00,437,WeatherHawk,2013-03-17 15:57:00,
2013-03-17 08:59:00,63.5,47.0,29.86,West,268,3.0,0.0,55,0.00,,,0.00,443,WeatherHawk,2013-03-17 15:59:00,
2013-03-17 09:04:00,64.0,47.5,29.86,WNW,290,2.0,0.0,55,0.00,,,0.00,457,WeatherHawk,2013-03-17 16:04:00,
2013-03-17 09:07:00,64.9,47.4,29.86,NNW,331,0.0,0.0,53,0.00,,,0.00,475,WeatherHawk,2013-03-17 16:07:00,
2013-03-17 09:09:00,65.1,47.6,29.86,SSW,203,1.0,0.0,53,0.00,,,0.00,479,WeatherHawk,2013-03-17 16:09:00,
2013-03-17 09:10:00,65.7,47.0,29.86,West,277,1.0,3.0,51,0.00,,,0.00,484,WeatherHawk,2013-03-17 16:10:00,
2013-03-17 09:14:00,66.7,45.3,29.86,SSW,212,3.0,3.0,46,0.00,,,0.00,498,WeatherHawk,2013-03-17 16:14:00,
2013-03-17 09:19:00,68.4,43.1,29.86,South,172,6.0,6.0,40,0.00,,,0.00,516,WeatherHawk,2013-03-17 16:19:00,
2013-03-17 09:20:00,69.1,42.4,29.86,South,185,7.0,0.0,38,0.00,,,0.00,518,WeatherHawk,2013-03-17 16:20:00,
2013-03-17 09:24:00,69.8,42.3,29.86,SSE,166,6.0,0.0,37,0.00,,,0.00,532,WeatherHawk,2013-03-17 16:24:00,
2013-03-17 09:28:00,70.3,42.1,29.87,South,188,5.0,0.0,36,0.00,,,0.00,553,WeatherHawk,2013-03-17 16:28:00,
2013-03-17 09:29:00,70.3,42.1,29.87,South,188,5.0,0.0,36,0.00,,,0.00,553,WeatherHawk,2013-03-17 16:29:00,
2013-03-17 09:30:00,70.7,42.4,29.87,South,178,5.0,8.0,36,0.00,,,0.00,559,WeatherHawk,2013-03-17 16:30:00,
2013-03-17 09:33:00,71.1,42.7,29.86,SSE,164,4.0,8.0,36,0.00,,,0.00,568,WeatherHawk,2013-03-17 16:33:00,
2013-03-17 09:34:00,71.4,43.1,29.87,South,178,4.0,8.0,36,0.00,,,0.00,573,WeatherHawk,2013-03-17 16:34:00,
2013-03-17 09:38:00,72.1,43.0,29.87,East,91,4.0,8.0,35,0.00,,,0.00,585,WeatherHawk,2013-03-17 16:38:00,
2013-03-17 09:39:00,72.3,43.1,29.87,ESE,120,4.0,8.0,35,0.00,,,0.00,587,WeatherHawk,2013-03-17 16:39:00,
2013-03-17 09:43:00,73.0,42.2,29.87,SSE,155,2.0,5.0,33,0.00,,,0.00,603,WeatherHawk,2013-03-17 16:43:00,
2013-03-17 09:44:00,73.2,43.2,29.87,SSE,152,3.0,5.0,34,0.00,,,0.00,604,WeatherHawk,2013-03-17 16:44:00,
2013-03-17 09:49:00,74.1,42.4,29.87,SSW,208,1.0,-999.0,32,0.00,,,0.00,620,WeatherHawk,2013-03-17 16:49:00,
2013-03-17 09:52:00,74.7,42.8,29.88,SSW,199,1.0,0.0,32,0.00,,,0.00,632,WeatherHawk,2013-03-17 16:52:00,
2013-03-17 09:54:00,74.7,42.0,29.88,South,185,3.0,0.0,31,0.00,,,0.00,635,WeatherHawk,2013-03-17 16:54:00,
2013-03-17 09:59:00,75.0,42.3,29.88,WSW,245,1.0,0.0,31,0.00,,,0.00,651,WeatherHawk,2013-03-17 16:59:00,
2013-03-17 10:01:00,75.0,38.8,29.87,SW,229,2.0,0.0,27,0.00,,,0.00,661,WeatherHawk,2013-03-17 17:01:00,
2013-03-17 10:04:00,75.0,40.6,29.87,SW,221,4.0,0.0,29,0.00,,,0.00,667,WeatherHawk,2013-03-17 17:04:00,
2013-03-17 10:05:00,75.0,38.8,29.88,SSW,207,3.0,0.0,27,0.00,,,0.00,674,WeatherHawk,2013-03-17 17:05:00,
2013-03-17 10:09:00,75.0,39.7,29.87,SSW,206,5.0,0.0,28,0.00,,,0.00,683,WeatherHawk,2013-03-17 17:09:00,
2013-03-17 10:10:00,74.8,38.6,29.87,South,191,5.0,0.0,27,0.00,,,0.00,689,WeatherHawk,2013-03-17 17:10:00,
2013-03-17 10:11:00,74.8,39.5,29.87,SSW,198,3.0,0.0,28,0.00,,,0.00,693,WeatherHawk,2013-03-17 17:11:00,
2013-03-17 10:12:00,75.0,39.7,29.87,SW,217,3.0,0.0,28,0.00,,,0.00,695,WeatherHawk,2013-03-17 17:12:00,
2013-03-17 10:16:00,75.0,38.8,29.87,WSW,240,1.0,0.0,27,0.00,,,0.00,707,WeatherHawk,2013-03-17 17:16:00,
2013-03-17 10:17:00,75.0,37.8,29.87,WSW,238,2.0,0.0,26,0.00,,,0.00,711,WeatherHawk,2013-03-17 17:17:00,
2013-03-17 10:18:00,75.2,36.9,29.87,West,275,1.0,0.0,25,0.00,,,0.00,713,WeatherHawk,2013-03-17 17:18:00,
2013-03-17 10:21:00,75.6,39.2,29.88,WSW,242,3.0,0.0,27,0.00,,,0.00,721,WeatherHawk,2013-03-17 17:21:00,
2013-03-17 10:22:00,75.7,38.4,29.87,SW,217,6.0,0.0,26,0.00,,,0.00,725,WeatherHawk,2013-03-17 17:22:00,
2013-03-17 10:23:00,75.6,38.3,29.87,SW,216,4.0,0.0,26,0.00,,,0.00,727,WeatherHawk,2013-03-17 17:23:00,
2013-03-17 10:26:00,75.4,40.9,29.87,West,260,4.0,0.0,29,0.00,,,0.00,735,WeatherHawk,2013-03-17 17:26:00,
2013-03-17 10:28:00,75.7,40.3,29.87,SW,225,4.0,-999.0,28,0.00,,,0.00,741,WeatherHawk,2013-03-17 17:28:00,
2013-03-17 10:31:00,75.6,40.1,29.88,WNW,291,4.0,7.0,28,0.00,,,0.00,749,WeatherHawk,2013-03-17 17:31:00,
2013-03-17 10:32:00,75.6,39.2,29.88,SW,217,7.0,7.0,27,0.00,,,0.00,752,WeatherHawk,2013-03-17 17:32:00,
2013-03-17 10:35:00,75.6,39.2,29.88,WSW,255,7.0,7.0,27,0.00,,,0.00,761,WeatherHawk,2013-03-17 17:35:00,
2013-03-17 10:37:00,75.7,40.3,29.88,WSW,239,6.0,7.0,28,0.00,,,0.00,765,WeatherHawk,2013-03-17 17:37:00,
2013-03-17 10:38:00,75.7,41.2,29.88,SW,235,8.0,8.0,29,0.00,,,0.00,767,WeatherHawk,2013-03-17 17:38:00,
2013-03-17 10:39:00,75.6,41.9,29.88,WSW,255,6.0,0.0,30,0.00,,,0.00,769,WeatherHawk,2013-03-17 17:39:00,
2013-03-17 10:43:00,75.6,41.1,29.88,West,264,7.0,0.0,29,0.00,,,0.00,779,WeatherHawk,2013-03-17 17:43:00,
2013-03-17 10:46:00,75.7,42.1,29.89,WSW,256,6.0,0.0,30,0.00,,,0.00,785,WeatherHawk,2013-03-17 17:46:00,
2013-03-17 10:47:00,76.1,41.5,29.89,WNW,282,8.0,0.0,29,0.00,,,0.00,790,WeatherHawk,2013-03-17 17:47:00,
2013-03-17 10:50:00,76.3,40.8,29.89,WSW,257,10.0,10.0,28,0.00,,,0.00,788,WeatherHawk,2013-03-17 17:50:00,
2013-03-17 10:52:00,76.3,41.7,29.89,WSW,242,7.0,10.0,29,0.00,,,0.00,801,WeatherHawk,2013-03-17 17:52:00,
2013-03-17 10:58:00,76.6,42.0,29.88,West,259,6.0,10.0,29,0.00,,,0.00,812,WeatherHawk,2013-03-17 17:58:00,
2013-03-17 10:59:00,76.6,41.1,29.88,West,261,5.0,10.0,28,0.00,,,0.00,817,WeatherHawk,2013-03-17 17:59:00,
2013-03-17 11:00:00,76.6,41.1,29.88,West,261,5.0,-999.0,28,0.00,,,0.00,817,WeatherHawk,2013-03-17 18:00:00,
2013-03-17 11:03:00,77.0,42.3,29.88,WSW,249,8.0,8.0,29,0.00,,,0.00,825,WeatherHawk,2013-03-17 18:03:00,
2013-03-17 11:05:00,77.0,43.2,29.88,WSW,245,7.0,8.0,30,0.00,,,0.00,831,WeatherHawk,2013-03-17 18:05:00,
2013-03-17 11:07:00,76.8,43.0,29.88,WSW,246,8.0,8.0,30,0.00,,,0.00,835,WeatherHawk,2013-03-17 18:07:00,
2013-03-17 11:09:00,77.0,44.0,29.88,WSW,249,8.0,8.0,31,0.00,,,0.00,840,WeatherHawk,2013-03-17 18:09:00,
2013-03-17 11:10:00,77.4,42.6,29.88,WNW,286,6.0,11.0,29,0.00,,,0.00,843,WeatherHawk,2013-03-17 18:10:00,
2013-03-17 11:15:00,77.5,43.6,29.88,West,280,5.0,11.0,30,0.00,,,0.00,847,WeatherHawk,2013-03-17 18:15:00,
2013-03-17 11:16:00,77.5,45.3,29.88,WSW,246,5.0,11.0,32,0.00,,,0.00,854,WeatherHawk,2013-03-17 18:16:00,
2013-03-17 11:17:00,77.5,45.3,29.87,West,267,6.0,11.0,32,0.00,,,0.00,854,WeatherHawk,2013-03-17 18:17:00,
2013-03-17 11:19:00,77.9,42.1,29.87,West,273,8.0,-999.0,28,0.00,,,0.00,859,WeatherHawk,2013-03-17 18:19:00,
2013-03-17 11:21:00,78.1,43.2,29.88,WNW,285,5.0,9.0,29,0.00,,,0.00,864,WeatherHawk,2013-03-17 18:21:00,
2013-03-17 11:23:00,78.3,44.3,29.87,WSW,239,5.0,9.0,30,0.00,,,0.00,864,WeatherHawk,2013-03-17 18:23:00,
2013-03-17 11:24:00,78.3,44.3,29.87,SW,224,7.0,9.0,30,0.00,,,0.00,867,WeatherHawk,2013-03-17 18:24:00,
2013-03-17 11:25:00,78.1,45.0,29.87,SW,232,8.0,9.0,31,0.00,,,0.00,870,WeatherHawk,2013-03-17 18:25:00,
2013-03-17 11:27:00,78.3,44.3,29.87,WSW,237,4.0,9.0,30,0.00,,,0.00,867,WeatherHawk,2013-03-17 18:27:00,
2013-03-17 11:29:00,78.3,45.1,29.87,West,263,8.0,9.0,31,0.00,,,0.00,871,WeatherHawk,2013-03-17 18:29:00,
2013-03-17 11:34:00,78.3,45.1,29.87,SW,235,6.0,10.0,31,0.00,,,0.00,882,WeatherHawk,2013-03-17 18:34:00,
2013-03-17 11:35:00,78.3,46.0,29.87,SSW,213,6.0,10.0,32,0.00,,,0.00,885,WeatherHawk,2013-03-17 18:35:00,
2013-03-17 11:38:00,78.6,46.3,29.87,West,281,6.0,10.0,32,0.00,,,0.00,884,WeatherHawk,2013-03-17 18:38:00,
2013-03-17 11:39:00,78.8,45.6,29.87,SSW,209,4.0,-999.0,31,0.00,,,0.00,888,WeatherHawk,2013-03-17 18:39:00,
2013-03-17 11:40:00,78.6,45.4,29.87,West,271,1.0,9.0,31,0.00,,,0.00,890,WeatherHawk,2013-03-17 18:40:00,
2013-03-17 11:47:00,79.5,42.6,29.87,NW,306,5.0,9.0,27,0.00,,,0.00,901,WeatherHawk,2013-03-17 18:47:00,
2013-03-17 11:48:00,79.5,45.3,29.87,WSW,241,4.0,9.0,30,0.00,,,0.00,902,WeatherHawk,2013-03-17 18:48:00,
2013-03-17 11:49:00,79.7,45.5,29.86,SW,235,9.0,9.0,30,0.00,,,0.00,903,WeatherHawk,2013-03-17 18:49:00,
2013-03-17 11:53:00,79.7,44.6,29.86,WSW,254,6.0,9.0,29,0.00,,,0.00,909,WeatherHawk,2013-03-17 18:53:00,
2013-03-17 11:54:00,79.7,44.6,29.86,WSW,252,5.0,9.0,29,0.00,,,0.00,909,WeatherHawk,2013-03-17 18:54:00,
2013-03-17 11:55:00,79.7,43.7,29.86,SW,232,3.0,9.0,28,0.00,,,0.00,910,WeatherHawk,2013-03-17 18:55:00,
2013-03-17 11:59:00,80.2,41.2,29.86,SW,236,4.0,9.0,25,0.00,,,0.00,914,WeatherHawk,2013-03-17 18:59:00,
2013-03-17 12:00:00,80.2,43.2,29.86,SW,221,6.0,0.0,27,0.00,,,0.00,915,WeatherHawk,2013-03-17 19:00:00,
2013-03-17 12:04:00,80.2,43.2,29.86,SW,224,4.0,9.0,27,0.00,,,0.00,918,WeatherHawk,2013-03-17 19:04:00,
2013-03-17 12:05:00,80.6,42.5,29.86,SSW,209,6.0,9.0,26,0.00,,,0.00,919,WeatherHawk,2013-03-17 19:05:00,
2013-03-17 12:08:00,81.0,42.8,29.86,WSW,239,6.0,9.0,26,0.00,,,0.00,922,WeatherHawk,2013-03-17 19:08:00,
2013-03-17 12:09:00,81.0,42.8,29.86,WSW,255,7.0,9.0,26,0.00,,,0.00,923,WeatherHawk,2013-03-17 19:09:00,
2013-03-17 12:12:00,81.0,42.8,29.86,West,268,6.0,10.0,26,0.00,,,0.00,923,WeatherHawk,2013-03-17 19:12:00,
2013-03-17 12:13:00,81.1,39.8,29.86,West,273,6.0,10.0,23,0.00,,,0.00,921,WeatherHawk,2013-03-17 19:13:00,
2013-03-17 12:14:00,81.1,38.7,29.86,WSW,248,6.0,10.0,22,0.00,,,0.00,929,WeatherHawk,2013-03-17 19:14:00,
2013-03-17 12:17:00,81.5,40.1,29.86,WNW,296,3.0,10.0,23,0.00,,,0.00,928,WeatherHawk,2013-03-17 19:17:00,
2013-03-17 12:19:00,81.9,41.5,29.86,WSW,256,6.0,10.0,24,0.00,,,0.00,928,WeatherHawk,2013-03-17 19:19:00,
2013-03-17 12:22:00,81.9,42.6,29.86,SW,219,5.0,9.0,25,0.00,,,0.00,928,WeatherHawk,2013-03-17 19:22:00,
2013-03-17 12:24:00,82.2,41.8,29.86,West,271,4.0,9.0,24,0.00,,,0.00,932,WeatherHawk,2013-03-17 19:24:00,
2013-03-17 12:27:00,82.2,41.8,29.86,WNW,299,4.0,9.0,24,0.00,,,0.00,933,WeatherHawk,2013-03-17 19:27:00,
2013-03-17 12:30:00,82.4,39.7,29.86,WNW,290,9.0,10.0,22,0.00,,,0.00,933,WeatherHawk,2013-03-17 19:30:00,
2013-03-17 12:31:00,82.2,39.6,29.86,NW,306,6.0,10.0,22,0.00,,,0.00,935,WeatherHawk,2013-03-17 19:31:00,
2013-03-17 12:32:00,82.0,38.2,29.86,WNW,300,4.0,10.0,21,0.00,,,0.00,936,WeatherHawk,2013-03-17 19:32:00,
2013-03-17 12:38:00,82.4,37.3,29.86,West,278,6.0,10.0,20,0.00,,,0.00,938,WeatherHawk,2013-03-17 19:38:00,
2013-03-17 12:39:00,82.6,37.4,29.86,NW,312,3.0,10.0,20,0.00,,,0.00,923,WeatherHawk,2013-03-17 19:39:00,
2013-03-17 12:40:00,82.6,36.1,29.86,NW,310,6.0,9.0,19,0.00,,,0.00,936,WeatherHawk,2013-03-17 19:40:00,
2013-03-17 12:45:00,82.6,37.4,29.86,West,274,5.0,9.0,20,0.00,,,0.00,945,WeatherHawk,2013-03-17 19:45:00,
2013-03-17 12:46:00,82.6,37.4,29.86,WSW,254,4.0,9.0,20,0.00,,,0.00,922,WeatherHawk,2013-03-17 19:46:00,
2013-03-17 12:49:00,82.8,36.3,29.86,NW,321,4.0,9.0,19,0.00,,,0.00,945,WeatherHawk,2013-03-17 19:49:00,
2013-03-17 12:50:00,82.6,36.1,29.86,WNW,283,3.0,10.0,19,0.00,,,0.00,955,WeatherHawk,2013-03-17 19:50:00,
2013-03-17 12:54:00,83.5,36.9,29.86,WSW,253,8.0,10.0,19,0.00,,,0.00,940,WeatherHawk,2013-03-17 19:54:00,
2013-03-17 12:59:00,83.1,36.6,29.86,West,271,5.0,10.0,19,0.00,,,0.00,921,WeatherHawk,2013-03-17 19:59:00,
2013-03-17 13:00:00,82.9,36.4,29.86,West,274,5.0,10.0,19,0.00,,,0.00,948,WeatherHawk,2013-03-17 20:00:00,
2013-03-17 13:06:00,83.1,35.2,29.86,NW,306,8.0,10.0,18,0.00,,,0.00,892,WeatherHawk,2013-03-17 20:06:00,
2013-03-17 13:07:00,82.9,36.4,29.86,WNW,292,5.0,10.0,19,0.00,,,0.00,811,WeatherHawk,2013-03-17 20:07:00,
2013-03-17 13:09:00,83.1,35.2,29.86,WNW,282,5.0,10.0,18,0.00,,,0.00,929,WeatherHawk,2013-03-17 20:09:00,
2013-03-17 13:11:00,83.1,35.2,29.86,WNW,302,3.0,0.0,18,0.00,,,0.00,950,WeatherHawk,2013-03-17 20:11:00,
2013-03-17 13:13:00,83.5,35.5,29.85,West,279,6.0,0.0,18,0.00,,,0.00,908,WeatherHawk,2013-03-17 20:13:00,
2013-03-17 13:14:00,83.5,35.5,29.85,WSW,258,4.0,0.0,18,0.00,,,0.00,898,WeatherHawk,2013-03-17 20:14:00,
2013-03-17 13:19:00,83.5,36.9,29.85,West,270,3.0,0.0,19,0.00,,,0.00,893,WeatherHawk,2013-03-17 20:19:00,
2013-03-17 13:20:00,83.5,38.2,29.84,NW,304,7.0,9.0,20,0.00,,,0.00,812,WeatherHawk,2013-03-17 20:20:00,
2013-03-17 13:21:00,83.5,36.9,29.84,WNW,294,7.0,9.0,19,0.00,,,0.00,635,WeatherHawk,2013-03-17 20:21:00,
2013-03-17 13:24:00,83.5,36.9,29.84,West,264,2.0,9.0,19,0.00,,,0.00,911,WeatherHawk,2013-03-17 20:24:00,
2013-03-17 13:28:00,83.7,37.0,29.84,West,280,9.0,9.0,19,0.00,,,0.00,922,WeatherHawk,2013-03-17 20:28:00,
2013-03-17 13:29:00,83.7,37.0,29.84,WSW,250,6.0,9.0,19,0.00,,,0.00,934,WeatherHawk,2013-03-17 20:29:00,
2013-03-17 13:34:00,83.8,35.8,29.84,WNW,286,4.0,11.0,18,0.00,,,0.00,609,WeatherHawk,2013-03-17 20:34:00,
2013-03-17 13:36:00,83.8,37.2,29.84,SW,234,2.0,11.0,19,0.00,,,0.00,842,WeatherHawk,2013-03-17 20:36:00,
2013-03-17 13:39:00,84.2,37.4,29.84,West,272,9.0,11.0,19,0.00,,,0.00,646,WeatherHawk,2013-03-17 20:39:00,
2013-03-17 13:40:00,84.2,37.4,29.84,WSW,252,8.0,0.0,19,0.00,,,0.00,797,WeatherHawk,2013-03-17 20:40:00,
2013-03-17 13:42:00,84.0,38.6,29.84,West,269,7.0,10.0,20,0.00,,,0.00,949,WeatherHawk,2013-03-17 20:42:00,
2013-03-17 13:44:00,84.2,38.8,29.84,WSW,238,6.0,10.0,20,0.00,,,0.00,936,WeatherHawk,2013-03-17 20:44:00,
2013-03-17 13:48:00,84.4,40.2,29.83,SW,229,12.0,12.0,21,0.00,,,0.00,860,WeatherHawk,2013-03-17 20:48:00,
2013-03-17 13:49:00,84.4,38.9,29.83,SW,218,12.0,12.0,20,0.00,,,0.00,934,WeatherHawk,2013-03-17 20:49:00,
2013-03-17 13:54:00,84.0,39.9,29.83,WSW,256,7.0,12.0,21,0.00,,,0.00,919,WeatherHawk,2013-03-17 20:54:00,
2013-03-17 13:55:00,84.2,40.0,29.83,SW,227,6.0,12.0,21,0.00,,,0.00,919,WeatherHawk,2013-03-17 20:55:00,
2013-03-17 13:56:00,84.2,40.0,29.83,SSW,212,8.0,12.0,21,0.00,,,0.00,907,WeatherHawk,2013-03-17 20:56:00,
2013-03-17 13:58:00,84.2,38.8,29.83,SW,224,9.0,12.0,20,0.00,,,0.00,907,WeatherHawk,2013-03-17 20:58:00,
2013-03-17 13:59:00,84.2,38.8,29.83,SW,224,9.0,12.0,20,0.00,,,0.00,907,WeatherHawk,2013-03-17 20:59:00,
2013-03-17 14:02:00,84.4,38.9,29.83,West,261,10.0,0.0,20,0.00,,,0.00,909,WeatherHawk,2013-03-17 21:02:00,
2013-03-17 14:04:00,84.7,37.9,29.82,WSW,246,8.0,0.0,19,0.00,,,0.00,909,WeatherHawk,2013-03-17 21:04:00,
2013-03-17 14:06:00,84.6,39.0,29.82,SW,231,9.0,0.0,20,0.00,,,0.00,902,WeatherHawk,2013-03-17 21:06:00,
2013-03-17 14:07:00,84.4,38.9,29.82,West,279,8.0,0.0,20,0.00,,,0.00,902,WeatherHawk,2013-03-17 21:07:00,
2013-03-17 14:09:00,84.4,40.2,29.82,SW,224,9.0,0.0,21,0.00,,,0.00,895,WeatherHawk,2013-03-17 21:09:00,
2013-03-17 14:11:00,84.7,37.9,29.82,SW,229,9.0,11.0,19,0.00,,,0.00,881,WeatherHawk,2013-03-17 21:11:00,
2013-03-17 14:13:00,84.6,37.7,29.82,WSW,250,10.0,11.0,19,0.00,,,0.00,890,WeatherHawk,2013-03-17 21:13:00,
2013-03-17 14:14:00,84.6,37.7,29.82,WSW,238,4.0,-999.0,19,0.00,,,0.00,883,WeatherHawk,2013-03-17 21:14:00,
2013-03-17 14:18:00,84.9,39.3,29.82,SW,231,8.0,11.0,20,0.00,,,0.00,802,WeatherHawk,2013-03-17 21:18:00,
2013-03-17 14:19:00,84.9,39.3,29.82,SW,234,9.0,11.0,20,0.00,,,0.00,882,WeatherHawk,2013-03-17 21:19:00,
2013-03-17 14:23:00,84.9,38.0,29.81,SW,216,10.0,0.0,19,0.00,,,0.00,884,WeatherHawk,2013-03-17 21:23:00,
2013-03-17 14:24:00,84.7,37.9,29.81,SSW,204,7.0,0.0,19,0.00,,,0.00,880,WeatherHawk,2013-03-17 21:24:00,
2013-03-17 14:25:00,84.7,39.2,29.81,SW,228,6.0,0.0,20,0.00,,,0.00,879,WeatherHawk,2013-03-17 21:25:00,
2013-03-17 14:29:00,84.9,38.0,29.81,SW,216,8.0,0.0,19,0.00,,,0.00,862,WeatherHawk,2013-03-17 21:29:00,
2013-03-17 14:30:00,84.9,38.0,29.81,SSW,213,4.0,12.0,19,0.00,,,0.00,853,WeatherHawk,2013-03-17 21:30:00,
2013-03-17 14:31:00,85.3,38.3,29.81,SW,218,10.0,12.0,19,0.00,,,0.00,841,WeatherHawk,2013-03-17 21:31:00,
2013-03-17 14:34:00,85.3,38.3,29.81,SW,223,11.0,12.0,19,0.00,,,0.00,640,WeatherHawk,2013-03-17 21:34:00,
2013-03-17 14:37:00,85.8,35.9,29.81,WSW,241,13.0,13.0,17,0.00,,,0.00,832,WeatherHawk,2013-03-17 21:37:00,
2013-03-17 14:39:00,85.8,37.4,29.81,WSW,251,8.0,12.0,18,0.00,,,0.00,838,WeatherHawk,2013-03-17 21:39:00,
2013-03-17 14:44:00,86.0,36.1,29.81,West,270,9.0,0.0,17,0.00,,,0.00,793,WeatherHawk,2013-03-17 21:44:00,
2013-03-17 14:49:00,86.0,37.5,29.81,WSW,251,9.0,0.0,18,0.00,,,0.00,804,WeatherHawk,2013-03-17 21:49:00,
2013-03-17 14:50:00,86.0,37.5,29.81,SW,218,9.0,0.0,18,0.00,,,0.00,795,WeatherHawk,2013-03-17 21:50:00,
2013-03-17 14:54:00,86.7,35.1,29.80,WNW,289,7.0,0.0,16,0.00,,,0.00,781,WeatherHawk,2013-03-17 21:54:00,
2013-03-17 14:57:00,86.9,35.3,29.80,WSW,243,10.0,0.0,16,0.00,,,0.00,775,WeatherHawk,2013-03-17 21:57:00,
2013-03-17 14:59:00,86.9,35.3,29.80,SW,221,11.0,-999.0,16,0.00,,,0.00,774,WeatherHawk,2013-03-17 21:59:00,
2013-03-17 15:00:00,86.9,33.7,29.80,WSW,245,7.0,0.0,15,0.00,,,0.00,770,WeatherHawk,2013-03-17 22:00:00,
2013-03-17 15:04:00,86.7,36.7,29.80,SW,234,8.0,0.0,17,0.00,,,0.00,762,WeatherHawk,2013-03-17 22:04:00,
2013-03-17 15:08:00,86.5,35.0,29.80,SW,221,9.0,0.0,16,0.00,,,0.00,747,WeatherHawk,2013-03-17 22:08:00,
2013-03-17 15:09:00,86.5,35.0,29.80,SSW,202,9.0,-999.0,16,0.00,,,0.00,735,WeatherHawk,2013-03-17 22:09:00,
2013-03-17 15:10:00,86.2,34.7,29.80,SW,219,9.0,0.0,16,0.00,,,0.00,729,WeatherHawk,2013-03-17 22:10:00,
2013-03-17 15:13:00,86.4,34.8,29.80,SW,231,10.0,0.0,16,0.00,,,0.00,726,WeatherHawk,2013-03-17 22:13:00,
2013-03-17 15:14:00,86.4,34.8,29.80,SW,231,10.0,0.0,16,0.00,,,0.00,726,WeatherHawk,2013-03-17 22:14:00,
2013-03-17 15:15:00,86.5,35.0,29.80,WSW,245,10.0,0.0,16,0.00,,,0.00,631,WeatherHawk,2013-03-17 22:15:00,
2013-03-17 15:18:00,86.4,36.4,29.80,WSW,246,9.0,0.0,17,0.00,,,0.00,718,WeatherHawk,2013-03-17 22:18:00,
2013-03-17 15:19:00,86.4,34.8,29.80,SW,224,11.0,0.0,16,0.00,,,0.00,680,WeatherHawk,2013-03-17 22:19:00,
2013-03-17 15:21:00,86.2,36.2,29.80,SW,226,7.0,0.0,17,0.00,,,0.00,679,WeatherHawk,2013-03-17 22:21:00,
2013-03-17 15:22:00,86.4,34.8,29.80,SW,218,8.0,0.0,16,0.00,,,0.00,697,WeatherHawk,2013-03-17 22:22:00,
2013-03-17 15:24:00,86.4,36.4,29.80,SW,223,9.0,0.0,17,0.00,,,0.00,689,WeatherHawk,2013-03-17 22:24:00,
2013-03-17 15:29:00,86.4,34.8,29.79,SW,221,10.0,0.0,16,0.00,,,0.00,666,WeatherHawk,2013-03-17 22:29:00,
2013-03-17 15:33:00,86.5,36.5,29.79,SW,224,7.0,12.0,17,0.00,,,0.00,678,WeatherHawk,2013-03-17 22:33:00,
2013-03-17 15:34:00,86.5,36.5,29.79,SW,224,7.0,-999.0,17,0.00,,,0.00,678,WeatherHawk,2013-03-17 22:34:00,
2013-03-17 15:35:00,86.5,35.0,29.79,SSW,211,12.0,12.0,16,0.00,,,0.00,561,WeatherHawk,2013-03-17 22:35:00,
2013-03-17 15:39:00,86.4,36.4,29.79,SW,218,7.0,12.0,17,0.00,,,0.00,691,WeatherHawk,2013-03-17 22:39:00,
2013-03-17 15:41:00,86.7,35.1,29.79,SW,231,13.0,0.0,16,0.00,,,0.00,663,WeatherHawk,2013-03-17 22:41:00,
2013-03-17 15:44:00,86.5,36.5,29.79,SW,216,8.0,0.0,17,0.00,,,0.00,649,WeatherHawk,2013-03-17 22:44:00,
2013-03-17 15:46:00,86.5,36.5,29.79,SW,217,8.0,0.0,17,0.00,,,0.00,637,WeatherHawk,2013-03-17 22:46:00,
2013-03-17 15:50:00,86.5,36.5,29.79,SW,223,12.0,0.0,17,0.00,,,0.00,622,WeatherHawk,2013-03-17 22:50:00,
2013-03-17 15:52:00,86.4,34.8,29.79,SW,221,9.0,0.0,16,0.00,,,0.00,612,WeatherHawk,2013-03-17 22:52:00,
2013-03-17 15:56:00,86.7,36.7,29.79,WSW,247,9.0,0.0,17,0.00,,,0.00,598,WeatherHawk,2013-03-17 22:56:00,
2013-03-17 15:57:00,86.9,36.8,29.79,SW,218,9.0,0.0,17,0.00,,,0.00,593,WeatherHawk,2013-03-17 22:57:00,
2013-03-17 15:59:00,86.9,38.3,29.79,SW,220,11.0,0.0,18,0.00,,,0.00,591,WeatherHawk,2013-03-17 22:59:00,
2013-03-17 16:03:00,86.5,35.0,29.79,SW,232,11.0,0.0,16,0.00,,,0.00,575,WeatherHawk,2013-03-17 23:03:00,
2013-03-17 16:04:00,86.5,35.0,29.79,SW,232,9.0,0.0,16,0.00,,,0.00,573,WeatherHawk,2013-03-17 23:04:00,
2013-03-17 16:08:00,86.5,35.0,29.79,SW,218,12.0,0.0,16,0.00,,,0.00,556,WeatherHawk,2013-03-17 23:08:00,
2013-03-17 16:09:00,86.5,35.0,29.79,SW,218,12.0,0.0,16,0.00,,,0.00,556,WeatherHawk,2013-03-17 23:09:00,
2013-03-17 16:13:00,86.7,36.7,29.79,SW,225,11.0,0.0,17,0.00,,,0.00,541,WeatherHawk,2013-03-17 23:13:00,
2013-03-17 16:14:00,86.7,36.7,29.79,SW,229,11.0,-999.0,17,0.00,,,0.00,539,WeatherHawk,2013-03-17 23:14:00,
2013-03-17 16:16:00,86.7,35.1,29.79,SW,227,10.0,0.0,16,0.00,,,0.00,529,WeatherHawk,2013-03-17 23:16:00,
2013-03-17 16:19:00,86.5,38.0,29.78,SW,218,10.0,0.0,18,0.00,,,0.00,524,WeatherHawk,2013-03-17 23:19:00,
2013-03-17 16:21:00,86.5,35.0,29.78,SW,221,10.0,0.0,16,0.00,,,0.00,512,WeatherHawk,2013-03-17 23:21:00,
2013-03-17 16:22:00,86.5,38.0,29.78,SW,232,10.0,0.0,18,0.00,,,0.00,508,WeatherHawk,2013-03-17 23:22:00,
2013-03-17 16:26:00,86.7,35.1,29.78,SSW,209,10.0,0.0,16,0.00,,,0.00,494,WeatherHawk,2013-03-17 23:26:00,
2013-03-17 16:27:00,86.7,35.1,29.78,SW,234,9.0,0.0,16,0.00,,,0.00,491,WeatherHawk,2013-03-17 23:27:00,
2013-03-17 16:31:00,86.7,38.1,29.78,SW,228,9.0,0.0,18,0.00,,,0.00,475,WeatherHawk,2013-03-17 23:31:00,
2013-03-17 16:33:00,86.5,36.5,29.78,SW,221,10.0,0.0,17,0.00,,,0.00,469,WeatherHawk,2013-03-17 23:33:00,
2013-03-17 16:34:00,86.5,36.5,29.78,SW,221,10.0,-999.0,17,0.00,,,0.00,469,WeatherHawk,2013-03-17 23:34:00,
2013-03-17 16:35:00,86.4,39.2,29.78,WSW,239,8.0,0.0,19,0.00,,,0.00,462,WeatherHawk,2013-03-17 23:35:00,
2013-03-17 16:38:00,86.4,41.8,29.78,SW,217,9.0,0.0,21,0.00,,,0.00,449,WeatherHawk,2013-03-17 23:38:00,
2013-03-17 16:39:00,86.4,41.8,29.78,SW,217,9.0,0.0,21,0.00,,,0.00,449,WeatherHawk,2013-03-17 23:39:00,
2013-03-17 16:40:00,86.0,38.9,29.78,SW,236,7.0,0.0,19,0.00,,,0.00,438,WeatherHawk,2013-03-17 23:40:00,
2013-03-17 16:42:00,86.0,38.9,29.78,SW,219,8.0,0.0,19,0.00,,,0.00,433,WeatherHawk,2013-03-17 23:42:00,
2013-03-17 16:44:00,86.0,36.1,29.78,SSW,209,11.0,0.0,17,0.00,,,0.00,424,WeatherHawk,2013-03-17 23:44:00,
2013-03-17 16:49:00,86.5,36.5,29.78,SSW,211,7.0,0.0,17,0.00,,,0.00,413,WeatherHawk,2013-03-17 23:49:00,
2013-03-17 16:50:00,86.5,36.5,29.78,SW,221,10.0,0.0,17,0.00,,,0.00,403,WeatherHawk,2013-03-17 23:50:00,
2013-03-17 16:53:00,86.7,38.1,29.78,SW,220,8.0,0.0,18,0.00,,,0.00,393,WeatherHawk,2013-03-17 23:53:00,
2013-03-17 16:54:00,86.7,38.1,29.78,SW,220,8.0,-999.0,18,0.00,,,0.00,393,WeatherHawk,2013-03-17 23:54:00,
2013-03-17 16:55:00,86.7,35.1,29.78,SW,226,7.0,0.0,16,0.00,,,0.00,384,WeatherHawk,2013-03-17 23:55:00,
2013-03-17 16:58:00,86.5,36.5,29.78,SW,222,8.0,0.0,17,0.00,,,0.00,380,WeatherHawk,2013-03-17 23:58:00,
2013-03-17 16:59:00,86.4,36.4,29.78,SW,219,11.0,0.0,17,0.00,,,0.00,376,WeatherHawk,2013-03-17 23:59:00,
2013-03-17 17:04:00,86.4,34.8,29.78,SW,233,9.0,0.0,16,0.00,,,0.00,363,WeatherHawk,2013-03-18 00:04:00,
2013-03-17 17:07:00,86.4,36.4,29.78,SW,232,8.0,0.0,17,0.00,,,0.00,344,WeatherHawk,2013-03-18 00:07:00,
2013-03-17 17:09:00,86.4,34.8,29.78,WSW,240,8.0,0.0,16,0.00,,,0.00,341,WeatherHawk,2013-03-18 00:09:00,
2013-03-17 17:14:00,86.4,36.4,29.78,SW,229,10.0,0.0,17,0.00,,,0.00,331,WeatherHawk,2013-03-18 00:14:00,
2013-03-17 17:17:00,86.4,34.8,29.78,WSW,240,8.0,0.0,16,0.00,,,0.00,322,WeatherHawk,2013-03-18 00:17:00,
2013-03-17 17:18:00,86.4,34.8,29.78,SW,228,11.0,0.0,16,0.00,,,0.00,265,WeatherHawk,2013-03-18 00:18:00,
2013-03-17 17:19:00,86.4,34.8,29.78,SW,228,11.0,0.0,16,0.00,,,0.00,265,WeatherHawk,2013-03-18 00:19:00,
2013-03-17 17:24:00,86.2,34.7,29.78,SW,231,10.0,0.0,16,0.00,,,0.00,283,WeatherHawk,2013-03-18 00:24:00,
2013-03-17 17:29:00,86.2,36.2,29.78,WSW,241,9.0,0.0,17,0.00,,,0.00,302,WeatherHawk,2013-03-18 00:29:00,
2013-03-17 17:32:00,86.2,37.7,29.78,WSW,238,10.0,11.0,18,0.00,,,0.00,301,WeatherHawk,2013-03-18 00:32:00,
2013-03-17 17:33:00,86.2,37.7,29.78,SW,234,10.0,11.0,18,0.00,,,0.00,285,WeatherHawk,2013-03-18 00:33:00,
2013-03-17 17:34:00,86.2,36.2,29.78,SW,226,10.0,11.0,17,0.00,,,0.00,250,WeatherHawk,2013-03-18 00:34:00,
2013-03-17 17:39:00,85.8,37.4,29.78,SW,224,10.0,11.0,18,0.00,,,0.00,257,WeatherHawk,2013-03-18 00:39:00,
2013-03-17 17:40:00,85.8,37.4,29.78,SW,230,8.0,0.0,18,0.00,,,0.00,231,WeatherHawk,2013-03-18 00:40:00,
2013-03-17 17:41:00,85.8,37.4,29.78,SW,235,9.0,0.0,18,0.00,,,0.00,228,WeatherHawk,2013-03-18 00:41:00,
2013-03-17 17:44:00,85.6,37.2,29.78,SW,222,10.0,0.0,18,0.00,,,0.00,213,WeatherHawk,2013-03-18 00:44:00,
2013-03-17 17:47:00,85.6,38.6,29.78,SW,234,7.0,0.0,19,0.00,,,0.00,195,WeatherHawk,2013-03-18 00:47:00,
2013-03-17 17:48:00,85.6,38.6,29.78,SW,231,9.0,0.0,19,0.00,,,0.00,186,WeatherHawk,2013-03-18 00:48:00,
2013-03-17 17:49:00,85.6,38.6,29.78,SW,231,9.0,0.0,19,0.00,,,0.00,186,WeatherHawk,2013-03-18 00:49:00,
2013-03-17 17:53:00,85.1,39.5,29.78,SW,230,8.0,0.0,20,0.00,,,0.00,112,WeatherHawk,2013-03-18 00:53:00,
2013-03-17 17:54:00,85.1,39.5,29.78,SW,230,8.0,0.0,20,0.00,,,0.00,112,WeatherHawk,2013-03-18 00:54:00,
2013-03-17 17:55:00,84.9,39.3,29.78,SW,223,8.0,0.0,20,0.00,,,0.00,84,WeatherHawk,2013-03-18 00:55:00,
2013-03-17 17:59:00,84.6,39.0,29.78,SW,222,6.0,0.0,20,0.00,,,0.00,70,WeatherHawk,2013-03-18 00:59:00,
2013-03-17 18:00:00,84.6,40.3,29.78,SW,229,6.0,0.0,21,0.00,,,0.00,53,WeatherHawk,2013-03-18 01:00:00,
2013-03-17 18:01:00,84.4,40.2,29.78,SW,221,6.0,0.0,21,0.00,,,0.00,50,WeatherHawk,2013-03-18 01:01:00,
2013-03-17 18:03:00,84.2,40.0,29.78,SW,223,8.0,0.0,21,0.00,,,0.00,51,WeatherHawk,2013-03-18 01:03:00,
2013-03-17 18:05:00,84.0,41.1,29.78,SW,217,7.0,0.0,22,0.00,,,0.00,63,WeatherHawk,2013-03-18 01:05:00,
2013-03-17 18:10:00,83.7,41.9,29.78,SW,217,7.0,0.0,23,0.00,,,0.00,59,WeatherHawk,2013-03-18 01:10:00,
2013-03-17 18:12:00,83.5,41.8,29.78,SSW,213,6.0,0.0,23,0.00,,,0.00,57,WeatherHawk,2013-03-18 01:12:00,
2013-03-17 18:14:00,83.3,42.7,29.78,SW,218,6.0,0.0,24,0.00,,,0.00,75,WeatherHawk,2013-03-18 01:14:00,
2013-03-17 18:18:00,82.9,42.4,29.78,SSW,211,7.0,0.0,24,0.00,,,0.00,106,WeatherHawk,2013-03-18 01:18:00,
2013-03-17 18:19:00,82.9,42.4,29.78,SSW,211,7.0,-999.0,24,0.00,,,0.00,106,WeatherHawk,2013-03-18 01:19:00,
2013-03-17 18:24:00,82.6,42.1,29.78,SSW,212,6.0,0.0,24,0.00,,,0.00,92,WeatherHawk,2013-03-18 01:24:00,
2013-03-17 18:25:00,82.4,42.0,29.78,SSW,212,6.0,0.0,24,0.00,,,0.00,86,WeatherHawk,2013-03-18 01:25:00,
2013-03-17 18:28:00,82.4,43.0,29.78,SW,215,6.0,0.0,25,0.00,,,0.00,76,WeatherHawk,2013-03-18 01:28:00,
2013-03-17 18:29:00,82.4,43.0,29.78,SW,215,6.0,0.0,25,0.00,,,0.00,76,WeatherHawk,2013-03-18 01:29:00,
2013-03-17 18:30:00,82.4,43.0,29.78,SW,219,6.0,0.0,25,0.00,,,0.00,64,WeatherHawk,2013-03-18 01:30:00,
2013-03-17 18:34:00,82.2,41.8,29.78,SW,217,7.0,0.0,24,0.00,,,0.00,48,WeatherHawk,2013-03-18 01:34:00,
2013-03-17 18:37:00,81.9,41.5,29.78,SSW,210,7.0,0.0,24,0.00,,,0.00,35,WeatherHawk,2013-03-18 01:37:00,
2013-03-17 18:38:00,81.9,41.5,29.78,SSW,209,7.0,0.0,24,0.00,,,0.00,32,WeatherHawk,2013-03-18 01:38:00,
2013-03-17 18:39:00,81.9,41.5,29.78,SSW,209,7.0,0.0,24,0.00,,,0.00,32,WeatherHawk,2013-03-18 01:39:00,
2013-03-17 18:41:00,81.5,42.3,29.78,SSW,212,6.0,0.0,25,0.00,,,0.00,20,WeatherHawk,2013-03-18 01:41:00,
2013-03-17 18:43:00,81.3,42.1,29.78,SSW,210,6.0,0.0,25,0.00,,,0.00,16,WeatherHawk,2013-03-18 01:43:00,
2013-03-17 18:48:00,80.8,41.7,29.78,SSW,202,6.0,0.0,25,0.00,,,0.00,7,WeatherHawk,2013-03-18 01:48:00,
2013-03-17 18:50:00,80.8,41.7,29.78,SSW,198,6.0,8.0,25,0.00,,,0.00,7,WeatherHawk,2013-03-18 01:50:00,
2013-03-17 18:52:00,80.4,41.4,29.78,SSW,204,5.0,7.0,25,0.00,,,0.00,4,WeatherHawk,2013-03-18 01:52:00,
2013-03-17 18:55:00,80.4,41.4,29.78,SSW,202,4.0,7.0,25,0.00,,,0.00,2,WeatherHawk,2013-03-18 01:55:00,
2013-03-17 18:58:00,80.2,41.2,29.78,SSW,206,3.0,7.0,25,0.00,,,0.00,1,WeatherHawk,2013-03-18 01:58:00,
2013-03-17 18:59:00,80.2,41.2,29.78,SSW,203,3.0,7.0,25,0.00,,,0.00,1,WeatherHawk,2013-03-18 01:59:00,
2013-03-17 19:01:00,80.1,41.0,29.79,SSW,198,3.0,6.0,25,0.00,,,0.00,1,WeatherHawk,2013-03-18 02:01:00,
2013-03-17 19:05:00,79.9,40.9,29.79,South,191,4.0,-999.0,25,0.00,,,0.00,0,WeatherHawk,2013-03-18 02:05:00,
2013-03-17 19:07:00,79.9,40.9,29.79,SSW,200,4.0,6.0,25,0.00,,,0.00,0,WeatherHawk,2013-03-18 02:07:00,
2013-03-17 19:09:00,79.7,40.7,29.79,SSW,198,4.0,-999.0,25,0.00,,,0.00,0,WeatherHawk,2013-03-18 02:09:00,
2013-03-17 19:10:00,79.7,40.7,29.79,SSW,199,3.0,0.0,25,0.00,,,0.00,0,WeatherHawk,2013-03-18 02:10:00,
2013-03-17 19:15:00,79.3,40.4,29.79,SSW,200,4.0,5.0,25,0.00,,,0.00,0,WeatherHawk,2013-03-18 02:15:00,
2013-03-17 19:19:00,79.0,40.1,29.79,SSW,201,4.0,5.0,25,0.00,,,0.00,0,WeatherHawk,2013-03-18 02:19:00,
2013-03-17 19:20:00,79.0,40.1,29.79,SSW,207,4.0,0.0,25,0.00,,,0.00,0,WeatherHawk,2013-03-18 02:20:00,
2013-03-17 19:21:00,78.8,38.9,29.79,SSW,196,4.0,5.0,24,0.00,,,0.00,0,WeatherHawk,2013-03-18 02:21:00,
2013-03-17 19:23:00,78.8,40.0,29.79,SSW,202,4.0,5.0,25,0.00,,,0.00,1,WeatherHawk,2013-03-18 02:23:00,
2013-03-17 19:24:00,78.8,38.9,29.79,SSW,196,4.0,-999.0,24,0.00,,,0.00,0,WeatherHawk,2013-03-18 02:24:00,
2013-03-17 19:26:00,78.6,38.8,29.79,SSW,207,4.0,5.0,24,0.00,,,0.00,1,WeatherHawk,2013-03-18 02:26:00,
2013-03-17 19:28:00,78.6,38.8,29.79,South,190,4.0,5.0,24,0.00,,,0.00,0,WeatherHawk,2013-03-18 02:28:00,
2013-03-17 19:29:00,78.4,38.6,29.79,SSW,195,4.0,5.0,24,0.00,,,0.00,0,WeatherHawk,2013-03-18 02:29:00,
2013-03-17 19:30:00,78.4,38.6,29.79,SSW,195,4.0,-999.0,24,0.00,,,0.00,0,WeatherHawk,2013-03-18 02:30:00,
2013-03-17 19:33:00,78.4,38.6,29.79,SSW,192,4.0,5.0,24,0.00,,,0.00,0,WeatherHawk,2013-03-18 02:33:00,
2013-03-17 19:34:00,78.3,38.5,29.79,SSW,194,5.0,5.0,24,0.00,,,0.00,0,WeatherHawk,2013-03-18 02:34:00,
2013-03-17 19:36:00,78.3,38.5,29.78,South,191,5.0,5.0,24,0.00,,,0.00,0,WeatherHawk,2013-03-18 02:36:00,
2013-03-17 19:38:00,78.1,38.3,29.78,SSW,195,5.0,5.0,24,0.00,,,0.00,0,WeatherHawk,2013-03-18 02:38:00,
2013-03-17 19:39:00,78.1,38.3,29.78,SSW,192,5.0,5.0,24,0.00,,,0.00,0,WeatherHawk,2013-03-18 02:39:00,
2013-03-17 19:40:00,78.1,38.3,29.78,SSW,197,5.0,0.0,24,0.00,,,0.00,0,WeatherHawk,2013-03-18 02:40:00,
2013-03-17 19:44:00,78.1,38.3,29.79,South,186,5.0,6.0,24,0.00,,,0.00,0,WeatherHawk,2013-03-18 02:44:00,
2013-03-17 19:45:00,78.1,38.3,29.79,South,189,6.0,6.0,24,0.00,,,0.00,0,WeatherHawk,2013-03-18 02:45:00,
2013-03-17 19:49:00,77.9,37.1,29.79,SSW,196,4.0,6.0,23,0.00,,,0.00,0,WeatherHawk,2013-03-18 02:49:00,
2013-03-17 19:54:00,77.9,37.1,29.79,SSW,196,5.0,6.0,23,0.00,,,0.00,0,WeatherHawk,2013-03-18 02:54:00,
2013-03-17 19:55:00,77.9,36.0,29.79,SSW,200,5.0,6.0,22,0.00,,,0.00,0,WeatherHawk,2013-03-18 02:55:00,
2013-03-17 19:56:00,77.9,36.0,29.79,SSW,194,6.0,6.0,22,0.00,,,0.00,0,WeatherHawk,2013-03-18 02:56:00,
2013-03-17 19:57:00,77.9,36.0,29.79,SSW,193,6.0,6.0,22,0.00,,,0.00,0,WeatherHawk,2013-03-18 02:57:00,
2013-03-17 20:00:00,77.9,36.0,29.79,South,191,5.0,6.0,22,0.00,,,0.00,0,WeatherHawk,2013-03-18 03:00:00,
2013-03-17 20:01:00,78.1,36.1,29.79,South,189,5.0,6.0,22,0.00,,,0.00,0,WeatherHawk,2013-03-18 03:01:00,
2013-03-17 20:04:00,77.9,36.0,29.79,SSW,193,5.0,-999.0,22,0.00,,,0.00,0,WeatherHawk,2013-03-18 03:04:00,
2013-03-17 20:08:00,77.7,35.8,29.79,SSW,192,5.0,6.0,22,0.00,,,0.00,0,WeatherHawk,2013-03-18 03:08:00,
2013-03-17 20:09:00,77.9,36.0,29.79,South,188,5.0,-999.0,22,0.00,,,0.00,0,WeatherHawk,2013-03-18 03:09:00,
2013-03-17 20:14:00,78.1,35.0,29.80,SSW,192,6.0,-999.0,21,0.00,,,0.00,0,WeatherHawk,2013-03-18 03:14:00,
2013-03-17 20:15:00,78.1,35.0,29.80,SSW,192,5.0,6.0,21,0.00,,,0.00,0,WeatherHawk,2013-03-18 03:15:00,
2013-03-17 20:19:00,77.9,34.8,29.80,South,191,6.0,0.0,21,0.00,,,0.00,0,WeatherHawk,2013-03-18 03:19:00,
2013-03-17 20:20:00,77.9,34.8,29.80,South,190,6.0,0.0,21,0.00,,,0.00,0,WeatherHawk,2013-03-18 03:20:00,
2013-03-17 20:22:00,78.1,35.0,29.80,South,191,6.0,6.0,21,0.00,,,0.00,0,WeatherHawk,2013-03-18 03:22:00,
2013-03-17 20:24:00,78.1,35.0,29.80,SSW,192,6.0,-999.0,21,0.00,,,0.00,0,WeatherHawk,2013-03-18 03:24:00,
2013-03-17 20:26:00,78.1,35.0,29.80,South,189,6.0,6.0,21,0.00,,,0.00,1,WeatherHawk,2013-03-18 03:26:00,
2013-03-17 20:29:00,77.9,34.8,29.80,South,190,5.0,6.0,21,0.00,,,0.00,0,WeatherHawk,2013-03-18 03:29:00,
2013-03-17 20:33:00,77.7,35.8,29.80,South,188,5.0,6.0,22,0.00,,,0.00,0,WeatherHawk,2013-03-18 03:33:00,
2013-03-17 20:34:00,77.7,35.8,29.80,South,187,5.0,6.0,22,0.00,,,0.00,0,WeatherHawk,2013-03-18 03:34:00,
2013-03-17 20:35:00,77.5,34.5,29.80,South,189,6.0,6.0,21,0.00,,,0.00,0,WeatherHawk,2013-03-18 03:35:00,
2013-03-17 20:36:00,77.5,35.7,29.80,South,188,6.0,6.0,22,0.00,,,0.00,0,WeatherHawk,2013-03-18 03:36:00,
2013-03-17 20:38:00,77.5,35.7,29.80,South,190,6.0,6.0,22,0.00,,,0.00,0,WeatherHawk,2013-03-18 03:38:00,
2013-03-17 20:41:00,77.5,35.7,29.80,SSW,199,5.0,6.0,22,0.00,,,0.00,0,WeatherHawk,2013-03-18 03:41:00,
2013-03-17 20:44:00,77.4,35.5,29.80,SSW,193,6.0,6.0,22,0.00,,,0.00,0,WeatherHawk,2013-03-18 03:44:00,
2013-03-17 20:48:00,77.5,35.7,29.80,South,188,6.0,6.0,22,0.00,,,0.00,0,WeatherHawk,2013-03-18 03:48:00,
2013-03-17 20:51:00,77.4,35.5,29.80,South,190,7.0,7.0,22,0.00,,,0.00,0,WeatherHawk,2013-03-18 03:51:00,
2013-03-17 20:52:00,77.4,35.5,29.80,South,189,6.0,7.0,22,0.00,,,0.00,0,WeatherHawk,2013-03-18 03:52:00,
2013-03-17 20:54:00,77.0,35.2,29.80,South,186,6.0,7.0,22,0.00,,,0.00,0,WeatherHawk,2013-03-18 03:54:00,
2013-03-17 20:57:00,76.8,35.1,29.80,South,184,6.0,7.0,22,0.00,,,0.00,0,WeatherHawk,2013-03-18 03:57:00,
2013-03-17 21:00:00,76.6,36.0,29.81,South,187,6.0,7.0,23,0.00,,,0.00,0,WeatherHawk,2013-03-18 04:00:00,
2013-03-17 21:01:00,76.6,36.0,29.81,South,189,6.0,7.0,23,0.00,,,0.00,0,WeatherHawk,2013-03-18 04:01:00,
2013-03-17 21:03:00,76.5,35.9,29.81,South,187,6.0,7.0,23,0.00,,,0.00,0,WeatherHawk,2013-03-18 04:03:00,
2013-03-17 21:04:00,76.5,35.9,29.81,South,186,6.0,7.0,23,0.00,,,0.00,0,WeatherHawk,2013-03-18 04:04:00,
2013-03-17 21:06:00,76.3,35.7,29.81,South,183,6.0,7.0,23,0.00,,,0.00,0,WeatherHawk,2013-03-18 04:06:00,
2013-03-17 21:08:00,75.7,35.3,29.81,South,181,5.0,7.0,23,0.00,,,0.00,0,WeatherHawk,2013-03-18 04:08:00,
2013-03-17 21:09:00,75.7,35.3,29.81,South,181,5.0,7.0,23,0.00,,,0.00,0,WeatherHawk,2013-03-18 04:09:00,
2013-03-17 21:14:00,73.6,36.6,29.81,South,178,10.0,10.0,26,0.00,,,0.00,0,WeatherHawk,2013-03-18 04:14:00,
2013-03-17 21:18:00,73.0,40.6,29.81,South,179,9.0,9.0,31,0.00,,,0.00,0,WeatherHawk,2013-03-18 04:18:00,
2013-03-17 21:19:00,72.9,39.6,29.81,South,181,8.0,8.0,30,0.00,,,0.00,0,WeatherHawk,2013-03-18 04:19:00,
2013-03-17 21:24:00,72.1,43.7,29.81,South,178,11.0,-999.0,36,0.00,,,0.00,0,WeatherHawk,2013-03-18 04:24:00,
2013-03-17 21:26:00,72.0,45.6,29.81,South,180,13.0,13.0,39,0.00,,,0.00,0,WeatherHawk,2013-03-18 04:26:00,
2013-03-17 21:29:00,72.0,46.3,29.82,South,179,10.0,-999.0,40,0.00,,,0.00,0,WeatherHawk,2013-03-18 04:29:00,
2013-03-17 21:31:00,71.6,47.9,29.82,South,179,12.0,14.0,43,0.00,,,0.00,0,WeatherHawk,2013-03-18 04:31:00,
2013-03-17 21:32:00,71.6,48.5,29.82,South,180,11.0,14.0,44,0.00,,,0.00,0,WeatherHawk,2013-03-18 04:32:00,
2013-03-17 21:36:00,71.4,49.5,29.82,South,183,12.0,14.0,46,0.00,,,0.00,0,WeatherHawk,2013-03-18 04:36:00,
2013-03-17 21:37:00,71.4,49.5,29.82,South,183,11.0,14.0,46,0.00,,,0.00,0,WeatherHawk,2013-03-18 04:37:00,
2013-03-17 21:39:00,71.2,49.4,29.82,South,185,11.0,-999.0,46,0.00,,,0.00,0,WeatherHawk,2013-03-18 04:39:00,
2013-03-17 21:41:00,71.1,49.8,29.82,South,181,12.0,14.0,47,0.00,,,0.00,0,WeatherHawk,2013-03-18 04:41:00,
2013-03-17 21:43:00,70.9,50.2,29.82,South,181,10.0,14.0,48,0.00,,,0.00,0,WeatherHawk,2013-03-18 04:43:00,
2013-03-17 21:44:00,70.9,50.2,29.82,South,181,10.0,-999.0,48,0.00,,,0.00,0,WeatherHawk,2013-03-18 04:44:00,
2013-03-17 21:48:00,70.5,49.9,29.82,South,182,11.0,14.0,48,0.00,,,0.00,0,WeatherHawk,2013-03-18 04:48:00,
2013-03-17 21:49:00,70.5,49.9,29.82,South,175,12.0,14.0,48,0.00,,,0.00,0,WeatherHawk,2013-03-18 04:49:00,
2013-03-17 21:52:00,70.5,50.4,29.83,South,176,11.0,13.0,49,0.00,,,0.00,0,WeatherHawk,2013-03-18 04:52:00,
2013-03-17 21:54:00,70.3,50.3,29.83,South,170,14.0,14.0,49,0.00,,,0.00,1,WeatherHawk,2013-03-18 04:54:00,
2013-03-17 21:55:00,70.5,50.4,29.83,South,183,12.0,13.0,49,0.00,,,0.00,0,WeatherHawk,2013-03-18 04:55:00,
2013-03-17 21:57:00,70.7,48.9,29.83,South,183,14.0,14.0,46,0.00,,,0.00,0,WeatherHawk,2013-03-18 04:57:00,
2013-03-17 21:59:00,70.7,48.3,29.83,South,180,15.0,15.0,45,0.00,,,0.00,1,WeatherHawk,2013-03-18 04:59:00,
2013-03-17 22:00:00,70.9,47.9,29.83,South,184,15.0,0.0,44,0.00,,,0.00,0,WeatherHawk,2013-03-18 05:00:00,
2013-03-17 22:04:00,70.9,47.3,29.83,South,176,13.0,-999.0,43,0.00,,,0.00,0,WeatherHawk,2013-03-18 05:04:00,
2013-03-17 22:05:00,70.9,47.3,29.83,SSE,167,13.0,0.0,43,0.00,,,0.00,0,WeatherHawk,2013-03-18 05:05:00,
2013-03-17 22:06:00,70.9,47.3,29.83,SSE,167,12.0,0.0,43,0.00,,,0.00,0,WeatherHawk,2013-03-18 05:06:00,
2013-03-17 22:10:00,70.7,47.1,29.83,SE,139,11.0,15.0,43,0.00,,,0.00,0,WeatherHawk,2013-03-18 05:10:00,
2013-03-17 22:12:00,70.3,47.4,29.83,SE,143,9.0,15.0,44,0.00,,,0.00,0,WeatherHawk,2013-03-18 05:12:00,
2013-03-17 22:13:00,70.2,47.2,29.84,SE,137,8.0,15.0,44,0.00,,,0.00,0,WeatherHawk,2013-03-18 05:13:00,
2013-03-17 22:14:00,70.2,47.2,29.84,SE,137,8.0,15.0,44,0.00,,,0.00,0,WeatherHawk,2013-03-18 05:14:00,
2013-03-17 22:19:00,69.3,47.6,29.84,SE,134,9.0,15.0,46,0.00,,,0.00,0,WeatherHawk,2013-03-18 05:19:00,
2013-03-17 22:20:00,69.1,47.4,29.83,SSE,155,14.0,14.0,46,0.00,,,0.00,0,WeatherHawk,2013-03-18 05:20:00,
2013-03-17 22:22:00,69.4,47.2,29.84,SSE,156,11.0,12.0,45,0.00,,,0.00,0,WeatherHawk,2013-03-18 05:22:00,
2013-03-17 22:25:00,69.6,47.3,29.84,SSE,157,10.0,12.0,45,0.00,,,0.00,0,WeatherHawk,2013-03-18 05:25:00,
2013-03-17 22:27:00,69.6,47.3,29.84,SE,137,9.0,12.0,45,0.00,,,0.00,0,WeatherHawk,2013-03-18 05:27:00,
2013-03-17 22:28:00,69.4,47.7,29.84,SE,142,11.0,12.0,46,0.00,,,0.00,0,WeatherHawk,2013-03-18 05:28:00,
2013-03-17 22:30:00,69.3,47.6,29.84,SE,132,11.0,15.0,46,0.00,,,0.00,0,WeatherHawk,2013-03-18 05:30:00,
2013-03-17 22:31:00,69.3,47.6,29.84,SE,130,11.0,15.0,46,0.00,,,0.00,0,WeatherHawk,2013-03-18 05:31:00,
2013-03-17 22:34:00,68.9,47.8,29.84,SE,125,9.0,15.0,47,0.00,,,0.00,0,WeatherHawk,2013-03-18 05:34:00,
2013-03-17 22:39:00,68.4,48.4,29.84,SE,134,8.0,15.0,49,0.00,,,0.00,0,WeatherHawk,2013-03-18 05:39:00,
2013-03-17 22:40:00,68.4,49.0,29.84,SE,132,10.0,0.0,50,0.00,,,0.00,0,WeatherHawk,2013-03-18 05:40:00,
2013-03-17 22:41:00,68.4,49.0,29.84,SE,138,10.0,0.0,50,0.00,,,0.00,0,WeatherHawk,2013-03-18 05:41:00,
2013-03-17 22:44:00,68.4,49.0,29.84,SE,127,12.0,0.0,50,0.00,,,0.00,0,WeatherHawk,2013-03-18 05:44:00,
2013-03-17 22:46:00,68.4,49.0,29.84,SE,125,9.0,0.0,50,0.00,,,0.00,0,WeatherHawk,2013-03-18 05:46:00,
2013-03-17 22:48:00,68.4,49.0,29.84,ESE,119,9.0,0.0,50,0.00,,,0.00,0,WeatherHawk,2013-03-18 05:48:00,
2013-03-17 22:50:00,68.4,49.5,29.84,SE,132,9.0,0.0,51,0.00,,,0.00,0,WeatherHawk,2013-03-18 05:50:00,
2013-03-17 22:51:00,68.2,49.4,29.84,SE,126,9.0,12.0,51,0.00,,,0.00,0,WeatherHawk,2013-03-18 05:51:00,
2013-03-17 22:52:00,68.2,49.4,29.84,SE,125,8.0,12.0,51,0.00,,,0.00,0,WeatherHawk,2013-03-18 05:52:00,
2013-03-17 22:56:00,67.8,49.0,29.84,ESE,117,9.0,12.0,51,0.00,,,0.00,0,WeatherHawk,2013-03-18 05:56:00,
2013-03-17 22:58:00,67.6,48.3,29.84,ESE,118,11.0,12.0,50,0.00,,,0.00,0,WeatherHawk,2013-03-18 05:58:00,
2013-03-17 22:59:00,67.6,48.3,29.84,SE,126,9.0,12.0,50,0.00,,,0.00,0,WeatherHawk,2013-03-18 05:59:00,
2013-03-17 23:00:00,67.5,47.6,29.84,SE,130,10.0,0.0,49,0.00,,,0.00,0,WeatherHawk,2013-03-18 06:00:00,
2013-03-17 23:04:00,67.5,47.6,29.84,SE,133,10.0,-999.0,49,0.00,,,0.00,0,WeatherHawk,2013-03-18 06:04:00,
2013-03-17 23:05:00,67.5,47.6,29.84,SE,124,8.0,0.0,49,0.00,,,0.00,0,WeatherHawk,2013-03-18 06:05:00,
2013-03-17 23:09:00,67.6,46.7,29.84,SE,130,10.0,-999.0,47,0.00,,,0.00,1,WeatherHawk,2013-03-18 06:09:00,
2013-03-17 23:12:00,67.6,46.7,29.84,SE,133,9.0,12.0,47,0.00,,,0.00,0,WeatherHawk,2013-03-18 06:12:00,
2013-03-17 23:14:00,67.5,45.9,29.84,SE,127,10.0,12.0,46,0.00,,,0.00,0,WeatherHawk,2013-03-18 06:14:00,
2013-03-17 23:16:00,67.3,45.8,29.84,ESE,117,10.0,12.0,46,0.00,,,0.00,0,WeatherHawk,2013-03-18 06:16:00,
2013-03-17 23:19:00,67.1,45.6,29.84,SE,128,10.0,-999.0,46,0.00,,,0.00,1,WeatherHawk,2013-03-18 06:19:00,
2013-03-17 23:20:00,66.9,45.5,29.84,SE,125,11.0,0.0,46,0.00,,,0.00,0,WeatherHawk,2013-03-18 06:20:00,
2013-03-17 23:22:00,66.9,45.5,29.84,SE,127,9.0,0.0,46,0.00,,,0.00,0,WeatherHawk,2013-03-18 06:22:00,
2013-03-17 23:24:00,66.9,45.5,29.84,SE,131,10.0,0.0,46,0.00,,,0.00,0,WeatherHawk,2013-03-18 06:24:00,
2013-03-17 23:25:00,66.9,45.5,29.84,SE,125,10.0,0.0,46,0.00,,,0.00,0,WeatherHawk,2013-03-18 06:25:00,
2013-03-17 23:27:00,66.7,44.7,29.84,ESE,120,12.0,0.0,45,0.00,,,0.00,0,WeatherHawk,2013-03-18 06:27:00,
2013-03-17 23:29:00,66.7,44.7,29.84,SE,124,11.0,-999.0,45,0.00,,,0.00,0,WeatherHawk,2013-03-18 06:29:00,
2013-03-17 23:32:00,66.7,44.7,29.84,ESE,122,13.0,0.0,45,0.00,,,0.00,0,WeatherHawk,2013-03-18 06:32:00,
2013-03-17 23:34:00,66.7,44.1,29.84,ESE,122,10.0,0.0,44,0.00,,,0.00,0,WeatherHawk,2013-03-18 06:34:00,
2013-03-17 23:37:00,66.7,44.1,29.84,ESE,118,10.0,0.0,44,0.00,,,0.00,0,WeatherHawk,2013-03-18 06:37:00,
2013-03-17 23:39:00,66.7,44.1,29.84,ESE,122,11.0,0.0,44,0.00,,,0.00,0,WeatherHawk,2013-03-18 06:39:00,
2013-03-17 23:41:00,66.7,43.5,29.84,SE,126,11.0,0.0,43,0.00,,,0.00,0,WeatherHawk,2013-03-18 06:41:00,
2013-03-17 23:43:00,66.6,43.4,29.84,SE,126,12.0,0.0,43,0.00,,,0.00,0,WeatherHawk,2013-03-18 06:43:00,
2013-03-17 23:44:00,66.6,43.4,29.84,ESE,115,7.0,-999.0,43,0.00,,,0.00,0,WeatherHawk,2013-03-18 06:44:00,
2013-03-17 23:46:00,66.6,43.4,29.84,ESE,116,7.0,0.0,43,0.00,,,0.00,0,WeatherHawk,2013-03-18 06:46:00,
2013-03-17 23:49:00,66.7,42.9,29.84,SE,126,7.0,0.0,42,0.00,,,0.00,0,WeatherHawk,2013-03-18 06:49:00,
2013-03-17 23:50:00,66.7,42.9,29.84,SE,129,8.0,12.0,42,0.00,,,0.00,0,WeatherHawk,2013-03-18 06:50:00,
2013-03-17 23:54:00,66.7,42.3,29.84,ESE,119,6.0,12.0,41,0.00,,,0.00,1,WeatherHawk,2013-03-18 06:54:00,
2013-03-17 23:56:00,66.6,42.1,29.84,ESE,111,6.0,12.0,41,0.00,,,0.00,0,WeatherHawk,2013-03-18 06:56:00,
2013-03-17 23:59:00,66.7,41.6,29.85,ESE,122,4.0,0.0,40,0.00,,,0.00,0,WeatherHawk,2013-03-18 06:59:00,